Time,TemperatureF,DewpointF,PressureIn,WindDirection,WindDirectionDegrees,WindSpeedMPH,WindSpeedGustMPH,Humidity,HourlyPrecipIn,Conditions,Clouds,dailyrainin,SoftwareType,DateUTC
2013-01-03 00:00:00,48.9,44.6,30.28,NW,315,0.0,0.0,85,0.00,,,0.00,VWS V14.00,2013-01-02 22:00:00,
2013-01-03 00:01:00,48.9,44.6,30.28,NW,315,0.0,0.0,85,0.00,,,0.00,VWS V14.00,2013-01-02 22:01:00,
2013-01-03 00:03:00,48.9,44.6,30.28,NW,315,0.0,0.0,85,0.00,,,0.00,VWS V14.00,2013-01-02 22:03:00,
2013-01-03 00:04:00,48.9,44.6,30.28,NW,315,0.0,0.0,85,0.00,,,0.00,VWS V14.00,2013-01-02 22:04:00,
2013-01-03 00:06:00,48.9,44.6,30.28,NW,315,0.0,0.0,85,0.00,,,0.00,VWS V14.00,2013-01-02 22:06:00,
2013-01-03 00:08:00,48.9,44.6,30.28,NW,315,0.0,0.0,85,0.00,,,0.00,VWS V14.00,2013-01-02 22:08:00,
2013-01-03 00:09:00,48.9,44.6,30.28,NW,315,0.0,0.0,85,0.00,,,0.00,VWS V14.00,2013-01-02 22:09:00,
2013-01-03 00:11:00,48.9,44.6,30.28,NW,315,0.0,0.0,85,0.00,,,0.00,VWS V14.00,2013-01-02 22:11:00,
2013-01-03 00:13:00,48.9,44.6,30.28,NW,315,0.0,0.0,85,0.00,,,0.00,VWS V14.00,2013-01-02 22:13:00,
2013-01-03 00:14:00,48.9,44.6,30.28,NW,315,0.0,0.0,85,0.00,,,0.00,VWS V14.00,2013-01-02 22:14:00,
2013-01-03 00:16:00,48.9,44.6,30.28,North,0,0.0,0.0,85,0.00,,,0.00,VWS V14.00,2013-01-02 22:16:00,
2013-01-03 00:18:00,48.9,44.6,30.28,North,0,0.0,0.0,85,0.00,,,0.00,VWS V14.00,2013-01-02 22:18:00,
2013-01-03 00:19:00,48.9,44.6,30.28,NNE,22,0.0,0.0,85,0.00,,,0.00,VWS V14.00,2013-01-02 22:19:00,
2013-01-03 00:21:00,48.9,44.6,30.28,NNE,22,0.0,0.0,85,0.00,,,0.00,VWS V14.00,2013-01-02 22:21:00,
2013-01-03 00:23:00,48.9,44.9,30.28,NNE,22,0.0,0.0,86,0.00,,,0.00,VWS V14.00,2013-01-02 22:23:00,
2013-01-03 00:24:00,48.9,44.6,30.28,NNE,22,0.0,0.0,85,0.00,,,0.00,VWS V14.00,2013-01-02 22:24:00,
2013-01-03 00:26:00,48.7,44.7,30.28,NW,315,0.0,0.0,86,0.00,,,0.00,VWS V14.00,2013-01-02 22:26:00,
2013-01-03 00:28:00,48.7,44.7,30.28,WNW,292,0.0,0.0,86,0.00,,,0.00,VWS V14.00,2013-01-02 22:28:00,
2013-01-03 00:29:00,48.7,44.7,30.28,WNW,292,0.0,0.0,86,0.00,,,0.00,VWS V14.00,2013-01-02 22:29:00,
2013-01-03 00:31:00,48.7,44.7,30.28,WNW,292,0.0,0.0,86,0.00,,,0.00,VWS V14.00,2013-01-02 22:31:00,
2013-01-03 00:33:00,48.7,44.7,30.28,NW,315,0.0,0.0,86,0.00,,,0.00,VWS V14.00,2013-01-02 22:33:00,
2013-01-03 00:34:00,48.7,44.7,30.28,WNW,292,1.5,1.5,86,0.00,,,0.00,VWS V14.00,2013-01-02 22:34:00,
2013-01-03 00:36:00,48.7,44.7,30.28,WNW,292,0.0,1.5,86,0.00,,,0.00,VWS V14.00,2013-01-02 22:36:00,
2013-01-03 00:38:00,48.7,44.7,30.28,WNW,292,0.8,1.5,86,0.00,,,0.00,VWS V14.00,2013-01-02 22:38:00,
2013-01-03 00:39:00,48.7,44.7,30.28,WNW,292,0.8,1.5,86,0.00,,,0.00,VWS V14.00,2013-01-02 22:39:00,
2013-01-03 00:41:00,48.7,44.7,30.29,WSW,248,0.0,0.8,86,0.00,,,0.00,VWS V14.00,2013-01-02 22:41:00,
2013-01-03 00:43:00,48.7,44.7,30.28,West,270,0.0,0.8,86,0.00,,,0.00,VWS V14.00,2013-01-02 22:43:00,
2013-01-03 00:44:00,48.7,44.7,30.28,West,270,0.0,0.8,86,0.00,,,0.00,VWS V14.00,2013-01-02 22:44:00,
2013-01-03 00:46:00,48.7,44.7,30.28,West,270,0.0,0.0,86,0.00,,,0.00,VWS V14.00,2013-01-02 22:46:00,
2013-01-03 00:47:00,48.7,44.7,30.28,West,270,0.0,0.0,86,0.00,,,0.00,VWS V14.00,2013-01-02 22:47:00,
2013-01-03 00:48:00,48.5,44.5,30.28,West,270,0.0,0.0,86,0.00,,,0.00,VWS V14.00,2013-01-02 22:48:00,
2013-01-03 00:49:00,48.5,44.5,30.28,NNW,338,0.0,0.0,86,0.00,,,0.00,VWS V14.00,2013-01-02 22:49:00,
2013-01-03 00:51:00,48.5,44.5,30.28,North,0,0.0,0.0,86,0.00,,,0.00,VWS V14.00,2013-01-02 22:51:00,
2013-01-03 00:52:00,48.5,44.5,30.28,North,0,0.0,0.0,86,0.00,,,0.00,VWS V14.00,2013-01-02 22:52:00,
2013-01-03 00:53:00,48.5,44.5,30.28,NNW,338,0.0,0.0,86,0.00,,,0.00,VWS V14.00,2013-01-02 22:53:00,
2013-01-03 00:54:00,48.5,44.5,30.29,NNW,338,0.0,0.0,86,0.00,,,0.00,VWS V14.00,2013-01-02 22:54:00,
2013-01-03 00:57:00,48.5,44.5,30.28,North,0,0.0,0.0,86,0.00,,,0.00,VWS V14.00,2013-01-02 22:57:00,
2013-01-03 00:58:00,48.5,44.5,30.29,NW,315,0.8,0.8,86,0.00,,,0.00,VWS V14.00,2013-01-02 22:58:00,
2013-01-03 00:59:00,48.5,44.5,30.28,NW,315,0.8,0.8,86,0.00,,,0.00,VWS V14.00,2013-01-02 22:59:00,
2013-01-03 01:02:00,48.3,44.3,30.29,North,0,0.0,0.0,86,0.00,,,0.00,VWS V14.00,2013-01-02 23:02:00,
2013-01-03 01:03:00,48.3,44.3,30.28,NW,315,0.0,0.0,86,0.00,,,0.00,VWS V14.00,2013-01-02 23:03:00,
2013-01-03 01:04:00,48.3,44.3,30.28,WNW,292,0.0,0.0,86,0.00,,,0.00,VWS V14.00,2013-01-02 23:04:00,
2013-01-03 01:07:00,48.3,44.3,30.29,NNW,338,0.0,0.0,86,0.00,,,0.00,VWS V14.00,2013-01-02 23:07:00,
2013-01-03 01:08:00,48.3,44.3,30.28,NNW,338,0.0,0.0,86,0.00,,,0.00,VWS V14.00,2013-01-02 23:08:00,
2013-01-03 01:09:00,48.3,44.3,30.29,North,0,0.0,0.0,86,0.00,,,0.00,VWS V14.00,2013-01-02 23:09:00,
2013-01-03 01:12:00,48.2,44.2,30.28,North,0,0.0,0.0,86,0.00,,,0.00,VWS V14.00,2013-01-02 23:12:00,
2013-01-03 01:13:00,48.2,44.2,30.29,NNW,338,0.0,0.0,86,0.00,,,0.00,VWS V14.00,2013-01-02 23:13:00,
2013-01-03 01:14:00,48.2,44.2,30.29,NNW,338,0.0,0.0,86,0.00,,,0.00,VWS V14.00,2013-01-02 23:14:00,
2013-01-03 01:17:00,48.0,44.0,30.29,NW,315,0.8,0.8,86,0.00,,,0.00,VWS V14.00,2013-01-02 23:17:00,
2013-01-03 01:18:00,48.0,44.0,30.29,NW,315,0.8,0.8,86,0.00,,,0.00,VWS V14.00,2013-01-02 23:18:00,
2013-01-03 01:19:00,48.0,44.0,30.29,WNW,292,0.0,0.8,86,0.00,,,0.00,VWS V14.00,2013-01-02 23:19:00,
2013-01-03 01:22:00,48.0,44.0,30.29,NE,45,0.0,0.0,86,0.00,,,0.00,VWS V14.00,2013-01-02 23:22:00,
2013-01-03 01:23:00,48.0,44.0,30.29,ENE,68,0.0,0.0,86,0.00,,,0.00,VWS V14.00,2013-01-02 23:23:00,
2013-01-03 01:24:00,48.0,44.0,30.29,ENE,68,0.0,0.0,86,0.00,,,0.00,VWS V14.00,2013-01-02 23:24:00,
2013-01-03 01:27:00,48.0,44.0,30.29,ENE,68,0.0,0.0,86,0.00,,,0.00,VWS V14.00,2013-01-02 23:27:00,
2013-01-03 01:29:00,48.0,44.0,30.28,ENE,68,0.0,0.0,86,0.00,,,0.00,VWS V14.00,2013-01-02 23:29:00,
2013-01-03 01:32:00,48.0,44.0,30.29,NE,45,0.0,0.0,86,0.00,,,0.00,VWS V14.00,2013-01-02 23:32:00,
2013-01-03 01:34:00,48.0,44.0,30.28,NE,45,0.0,0.0,86,0.00,,,0.00,VWS V14.00,2013-01-02 23:34:00,
2013-01-03 01:37:00,48.0,44.0,30.29,NE,45,0.0,0.0,86,0.00,,,0.00,VWS V14.00,2013-01-02 23:37:00,
2013-01-03 01:39:00,48.0,44.0,30.29,NNW,338,0.0,0.0,86,0.00,,,0.00,VWS V14.00,2013-01-02 23:39:00,
2013-01-03 01:42:00,48.0,44.0,30.29,NW,315,1.1,1.1,86,0.00,,,0.00,VWS V14.00,2013-01-02 23:42:00,
2013-01-03 01:44:00,47.8,43.8,30.29,NW,315,0.0,1.1,86,0.00,,,0.00,VWS V14.00,2013-01-02 23:44:00,
2013-01-03 01:45:00,47.8,43.8,30.29,NW,315,0.0,1.1,86,0.00,,,0.00,VWS V14.00,2013-01-02 23:45:00,
2013-01-03 01:47:00,47.8,44.1,30.29,NW,315,0.0,0.0,87,0.00,,,0.00,VWS V14.00,2013-01-02 23:47:00,
2013-01-03 01:49:00,47.8,44.1,30.29,WNW,292,0.0,0.0,87,0.00,,,0.00,VWS V14.00,2013-01-02 23:49:00,
2013-01-03 01:50:00,47.8,44.1,30.29,WNW,292,0.0,0.0,87,0.00,,,0.00,VWS V14.00,2013-01-02 23:50:00,
2013-01-03 01:52:00,47.8,44.1,30.29,WNW,292,0.0,0.0,87,0.00,,,0.06,VWS V14.00,2013-01-02 23:52:00,
2013-01-03 01:54:00,47.8,44.1,30.29,North,0,0.0,0.0,87,0.00,,,0.00,VWS V14.00,2013-01-02 23:54:00,
2013-01-03 01:55:00,47.8,44.1,30.29,North,0,0.0,0.0,87,0.00,,,0.00,VWS V14.00,2013-01-02 23:55:00,
2013-01-03 01:57:00,47.8,44.1,30.29,North,0,0.0,0.0,87,0.00,,,0.00,VWS V14.00,2013-01-02 23:57:00,
2013-01-03 01:59:00,47.8,44.1,30.29,NNW,338,0.0,0.0,87,0.00,,,0.00,VWS V14.00,2013-01-02 23:59:00,
2013-01-03 02:00:00,47.8,44.1,30.29,NNW,338,0.0,0.0,87,0.00,,,0.00,VWS V14.00,2013-01-03 00:00:00,
2013-01-03 02:02:00,47.8,44.1,30.29,NNW,338,0.0,0.0,87,0.00,,,0.00,VWS V14.00,2013-01-03 00:02:00,
2013-01-03 02:04:00,47.8,44.1,30.29,WSW,248,0.0,0.0,87,0.00,,,0.00,VWS V14.00,2013-01-03 00:04:00,
2013-01-03 02:05:00,47.8,44.1,30.29,WSW,248,0.0,0.0,87,0.00,,,0.00,VWS V14.00,2013-01-03 00:05:00,
2013-01-03 02:07:00,47.8,44.1,30.29,West,270,0.0,0.0,87,0.00,,,0.00,VWS V14.00,2013-01-03 00:07:00,
2013-01-03 02:09:00,47.8,44.1,30.29,West,270,0.0,0.0,87,0.00,,,0.00,VWS V14.00,2013-01-03 00:09:00,
2013-01-03 02:10:00,47.8,44.1,30.29,West,270,0.0,0.0,87,0.00,,,0.00,VWS V14.00,2013-01-03 00:10:00,
2013-01-03 02:12:00,47.6,43.6,30.29,NNE,22,0.0,0.0,86,0.00,,,0.00,VWS V14.00,2013-01-03 00:12:00,
2013-01-03 02:15:00,47.6,43.6,30.30,NNE,22,0.0,0.0,86,0.00,,,0.00,VWS V14.00,2013-01-03 00:15:00,
2013-01-03 02:17:00,47.6,43.6,30.30,NNE,22,0.0,0.0,86,0.00,,,0.00,VWS V14.00,2013-01-03 00:17:00,
2013-01-03 02:20:00,47.6,43.6,30.30,NE,45,0.0,0.0,86,0.00,,,0.00,VWS V14.00,2013-01-03 00:20:00,
2013-01-03 02:22:00,47.6,43.6,30.30,ENE,68,0.0,0.0,86,0.00,,,0.00,VWS V14.00,2013-01-03 00:22:00,
2013-01-03 02:25:00,47.6,43.6,30.30,ENE,68,0.0,0.0,86,0.00,,,0.00,VWS V14.00,2013-01-03 00:25:00,
2013-01-03 02:27:00,47.4,43.4,30.30,NE,45,0.0,0.0,86,0.00,,,0.00,VWS V14.00,2013-01-03 00:27:00,
2013-01-03 02:28:00,47.4,43.4,30.30,NE,45,0.0,0.0,86,0.00,,,0.00,VWS V14.00,2013-01-03 00:28:00,
2013-01-03 02:30:00,47.4,43.4,30.30,NE,45,0.0,0.0,86,0.00,,,0.00,VWS V14.00,2013-01-03 00:30:00,
2013-01-03 02:32:00,47.4,43.4,30.30,NE,45,0.0,0.0,86,0.00,,,0.00,VWS V14.00,2013-01-03 00:32:00,
2013-01-03 02:34:00,47.4,43.4,30.30,NE,45,0.0,0.0,86,0.00,,,0.00,VWS V14.00,2013-01-03 00:34:00,
2013-01-03 02:35:00,47.4,43.7,30.30,NE,45,0.0,0.0,87,0.00,,,0.00,VWS V14.00,2013-01-03 00:35:00,
2013-01-03 02:36:00,47.4,43.7,30.30,NE,45,0.0,0.0,87,0.00,,,0.00,VWS V14.00,2013-01-03 00:36:00,
2013-01-03 02:38:00,47.4,43.7,30.30,NNE,22,0.0,0.0,87,0.00,,,0.00,VWS V14.00,2013-01-03 00:38:00,
2013-01-03 02:39:00,47.4,43.7,30.30,NNE,22,0.0,0.0,87,0.00,,,0.00,VWS V14.00,2013-01-03 00:39:00,
2013-01-03 02:40:00,47.4,43.7,30.30,NE,45,0.0,0.0,87,0.00,,,0.00,VWS V14.00,2013-01-03 00:40:00,
2013-01-03 02:41:00,47.4,43.7,30.30,NE,45,0.0,0.0,87,0.00,,,0.00,VWS V14.00,2013-01-03 00:41:00,
2013-01-03 02:43:00,47.4,43.7,30.30,ENE,68,0.0,0.0,87,0.00,,,0.00,VWS V14.00,2013-01-03 00:43:00,
2013-01-03 02:44:00,47.4,43.7,30.30,ENE,68,0.0,0.0,87,0.00,,,0.00,VWS V14.00,2013-01-03 00:44:00,
2013-01-03 02:45:00,47.3,43.6,30.30,ENE,68,0.0,0.0,87,0.00,,,0.00,VWS V14.00,2013-01-03 00:45:00,
2013-01-03 02:46:00,47.3,43.6,30.30,ENE,68,0.0,0.0,87,0.00,,,0.00,VWS V14.00,2013-01-03 00:46:00,
2013-01-03 02:48:00,47.3,43.6,30.30,ENE,68,0.0,0.0,87,0.00,,,0.00,VWS V14.00,2013-01-03 00:48:00,
2013-01-03 02:49:00,47.3,43.6,30.30,ENE,68,0.0,0.0,87,0.00,,,0.00,VWS V14.00,2013-01-03 00:49:00,
2013-01-03 02:50:00,47.3,43.6,30.31,ENE,68,0.0,0.0,87,0.00,,,0.00,VWS V14.00,2013-01-03 00:50:00,
2013-01-03 02:51:00,47.3,43.6,30.31,ENE,68,0.0,0.0,87,0.00,,,0.00,VWS V14.00,2013-01-03 00:51:00,
2013-01-03 02:53:00,47.3,43.6,30.30,ENE,68,0.0,0.0,87,0.00,,,0.00,VWS V14.00,2013-01-03 00:53:00,
2013-01-03 02:54:00,47.3,43.6,30.31,ENE,68,0.0,0.0,87,0.00,,,0.00,VWS V14.00,2013-01-03 00:54:00,
2013-01-03 02:55:00,47.3,43.6,30.31,ENE,68,0.0,0.0,87,0.00,,,0.00,VWS V14.00,2013-01-03 00:55:00,
2013-01-03 02:56:00,47.3,43.6,30.30,ENE,68,0.0,0.0,87,0.00,,,0.00,VWS V14.00,2013-01-03 00:56:00,
2013-01-03 02:59:00,47.1,43.4,30.30,ENE,68,0.0,0.0,87,0.00,,,0.00,VWS V14.00,2013-01-03 00:59:00,
2013-01-03 03:01:00,47.1,43.4,30.30,ENE,68,0.0,0.0,87,0.00,,,0.00,VWS V14.00,2013-01-03 01:01:00,
2013-01-03 03:04:00,47.1,43.4,30.31,ENE,68,0.0,0.0,87,0.00,,,0.00,VWS V14.00,2013-01-03 01:04:00,
2013-01-03 03:06:00,47.1,43.4,30.30,ENE,68,0.0,0.0,87,0.00,,,0.00,VWS V14.00,2013-01-03 01:06:00,
2013-01-03 03:09:00,47.1,43.4,30.30,ENE,68,0.0,0.0,87,0.00,,,0.00,VWS V14.00,2013-01-03 01:09:00,
2013-01-03 03:11:00,47.1,43.4,30.31,ENE,68,0.0,0.0,87,0.00,,,0.00,VWS V14.00,2013-01-03 01:11:00,
2013-01-03 03:14:00,47.1,43.4,30.30,ENE,68,0.0,0.0,87,0.00,,,0.00,VWS V14.00,2013-01-03 01:14:00,
2013-01-03 03:16:00,47.1,43.4,30.30,ENE,68,0.0,0.0,87,0.00,,,0.00,VWS V14.00,2013-01-03 01:16:00,
2013-01-03 03:19:00,47.1,43.4,30.30,ENE,68,0.0,0.0,87,0.00,,,0.00,VWS V14.00,2013-01-03 01:19:00,
2013-01-03 03:20:00,47.1,43.4,30.31,NE,45,0.0,0.0,87,0.00,,,0.00,VWS V14.00,2013-01-03 01:20:00,
2013-01-03 03:21:00,47.1,43.4,30.31,NE,45,0.0,0.0,87,0.00,,,0.00,VWS V14.00,2013-01-03 01:21:00,
2013-01-03 03:24:00,47.1,43.4,30.31,NNE,22,0.0,0.0,87,0.00,,,0.00,VWS V14.00,2013-01-03 01:24:00,
2013-01-03 03:25:00,47.1,43.4,30.31,NNE,22,0.0,0.0,87,0.00,,,0.00,VWS V14.00,2013-01-03 01:25:00,
2013-01-03 03:26:00,47.1,43.4,30.31,North,0,0.0,0.0,87,0.00,,,0.00,VWS V14.00,2013-01-03 01:26:00,
2013-01-03 03:29:00,47.1,43.4,30.30,North,0,0.0,0.0,87,0.00,,,0.00,VWS V14.00,2013-01-03 01:29:00,
2013-01-03 03:30:00,47.1,43.4,30.31,North,0,0.0,0.0,87,0.00,,,0.00,VWS V14.00,2013-01-03 01:30:00,
2013-01-03 03:31:00,47.1,43.4,30.31,NW,315,0.0,0.0,87,0.00,,,0.00,VWS V14.00,2013-01-03 01:31:00,
2013-01-03 03:34:00,47.1,43.4,30.31,WNW,292,0.0,0.0,87,0.00,,,0.00,VWS V14.00,2013-01-03 01:34:00,
2013-01-03 03:35:00,47.1,43.4,30.31,ENE,68,0.0,0.0,87,0.00,,,0.00,VWS V14.00,2013-01-03 01:35:00,
2013-01-03 03:36:00,47.1,43.4,30.31,ENE,68,0.0,0.0,87,0.00,,,0.00,VWS V14.00,2013-01-03 01:36:00,
2013-01-03 03:37:00,47.1,43.4,30.31,East,90,0.0,0.0,87,0.00,,,0.00,VWS V14.00,2013-01-03 01:37:00,
2013-01-03 03:39:00,47.1,43.4,30.31,East,90,0.0,0.0,87,0.00,,,0.00,VWS V14.00,2013-01-03 01:39:00,
2013-01-03 03:40:00,47.1,43.4,30.31,East,90,0.0,0.0,87,0.00,,,0.00,VWS V14.00,2013-01-03 01:40:00,
2013-01-03 03:41:00,47.1,43.4,30.31,East,90,0.0,0.0,87,0.00,,,0.00,VWS V14.00,2013-01-03 01:41:00,
2013-01-03 03:42:00,47.1,43.4,30.31,East,90,0.0,0.0,87,0.00,,,0.00,VWS V14.00,2013-01-03 01:42:00,
2013-01-03 03:44:00,47.1,43.4,30.31,East,90,0.0,0.0,87,0.00,,,0.00,VWS V14.00,2013-01-03 01:44:00,
2013-01-03 03:45:00,47.1,43.4,30.31,East,90,0.0,0.0,87,0.00,,,0.00,VWS V14.00,2013-01-03 01:45:00,
2013-01-03 03:46:00,47.1,43.4,30.31,East,90,0.0,0.0,87,0.00,,,0.00,VWS V14.00,2013-01-03 01:46:00,
2013-01-03 03:47:00,47.1,43.4,30.31,East,90,0.0,0.0,87,0.00,,,0.00,VWS V14.00,2013-01-03 01:47:00,
2013-01-03 03:49:00,47.1,43.4,30.31,East,90,0.0,0.0,87,0.00,,,0.00,VWS V14.00,2013-01-03 01:49:00,
2013-01-03 03:50:00,47.1,43.4,30.31,East,90,0.0,0.0,87,0.00,,,0.00,VWS V14.00,2013-01-03 01:50:00,
2013-01-03 03:51:00,47.1,43.4,30.31,East,90,0.0,0.0,87,0.00,,,0.00,VWS V14.00,2013-01-03 01:51:00,
2013-01-03 03:52:00,47.1,43.4,30.32,WNW,292,0.0,0.0,87,0.00,,,0.00,VWS V14.00,2013-01-03 01:52:00,
2013-01-03 03:54:00,47.1,43.4,30.31,WNW,292,0.0,0.0,87,0.00,,,0.00,VWS V14.00,2013-01-03 01:54:00,
2013-01-03 03:55:00,47.1,43.7,30.31,WNW,292,0.0,0.0,88,0.00,,,0.00,VWS V14.00,2013-01-03 01:55:00,
2013-01-03 03:56:00,47.1,43.7,30.31,WNW,292,0.0,0.0,88,0.00,,,0.00,VWS V14.00,2013-01-03 01:56:00,
2013-01-03 03:57:00,47.1,43.7,30.31,WNW,292,0.0,0.0,88,0.00,,,0.00,VWS V14.00,2013-01-03 01:57:00,
2013-01-03 03:59:00,47.1,43.7,30.31,WNW,292,0.0,0.0,88,0.00,,,0.00,VWS V14.00,2013-01-03 01:59:00,
2013-01-03 04:00:00,47.1,43.7,30.31,WNW,292,0.0,0.0,88,0.00,,,0.00,VWS V14.00,2013-01-03 02:00:00,
2013-01-03 04:01:00,47.1,43.7,30.31,WNW,292,0.0,0.0,88,0.00,,,0.00,VWS V14.00,2013-01-03 02:01:00,
2013-01-03 04:02:00,47.3,43.9,30.31,WNW,292,0.0,0.0,88,0.00,,,0.00,VWS V14.00,2013-01-03 02:02:00,
2013-01-03 04:04:00,47.3,43.9,30.31,NW,315,0.6,0.6,88,0.00,,,0.00,VWS V14.00,2013-01-03 02:04:00,
2013-01-03 04:05:00,47.3,43.9,30.31,NW,315,0.6,0.6,88,0.00,,,0.00,VWS V14.00,2013-01-03 02:05:00,
2013-01-03 04:06:00,47.3,43.9,30.31,NW,315,0.6,0.6,88,0.00,,,0.00,VWS V14.00,2013-01-03 02:06:00,
2013-01-03 04:07:00,47.3,43.9,30.31,WNW,292,0.6,0.6,88,0.00,,,0.00,VWS V14.00,2013-01-03 02:07:00,
2013-01-03 04:09:00,47.3,43.6,30.31,NNW,338,0.0,0.6,87,0.00,,,0.00,VWS V14.00,2013-01-03 02:09:00,
2013-01-03 04:10:00,47.3,43.9,30.31,WNW,292,0.0,0.0,88,0.00,,,0.00,VWS V14.00,2013-01-03 02:10:00,
2013-01-03 04:11:00,47.3,43.9,30.31,WNW,292,0.0,0.0,88,0.00,,,0.00,VWS V14.00,2013-01-03 02:11:00,
2013-01-03 04:12:00,47.3,43.9,30.31,North,0,0.0,0.0,88,0.00,,,0.00,VWS V14.00,2013-01-03 02:12:00,
2013-01-03 04:14:00,47.3,43.9,30.32,North,0,0.0,0.0,88,0.00,,,0.00,VWS V14.00,2013-01-03 02:14:00,
2013-01-03 04:15:00,47.3,43.9,30.31,North,0,0.0,0.0,88,0.00,,,0.00,VWS V14.00,2013-01-03 02:15:00,
2013-01-03 04:16:00,47.3,43.9,30.31,North,0,0.0,0.0,88,0.00,,,0.00,VWS V14.00,2013-01-03 02:16:00,
2013-01-03 04:17:00,47.3,43.9,30.31,North,0,0.0,0.0,88,0.00,,,0.00,VWS V14.00,2013-01-03 02:17:00,
2013-01-03 04:19:00,47.3,43.9,30.32,WNW,292,0.0,0.0,88,0.00,,,0.00,VWS V14.00,2013-01-03 02:19:00,
2013-01-03 04:20:00,47.3,43.9,30.31,WNW,292,0.0,0.0,88,0.00,,,0.00,VWS V14.00,2013-01-03 02:20:00,
2013-01-03 04:21:00,47.3,43.9,30.32,NNW,338,0.0,0.0,88,0.00,,,0.00,VWS V14.00,2013-01-03 02:21:00,
2013-01-03 04:22:00,47.3,43.9,30.31,NNW,338,0.0,0.0,88,0.00,,,0.00,VWS V14.00,2013-01-03 02:22:00,
2013-01-03 04:24:00,47.3,43.9,30.32,NNW,338,0.0,0.0,88,0.00,,,0.00,VWS V14.00,2013-01-03 02:24:00,
2013-01-03 04:26:00,47.3,43.9,30.32,NNW,338,0.0,0.0,88,0.00,,,0.00,VWS V14.00,2013-01-03 02:26:00,
2013-01-03 04:28:00,47.3,43.9,30.32,NW,315,1.7,1.7,88,0.00,,,0.00,VWS V14.00,2013-01-03 02:28:00,
2013-01-03 04:29:00,47.3,43.9,30.31,NW,315,1.7,1.7,88,0.00,,,0.00,VWS V14.00,2013-01-03 02:29:00,
2013-01-03 04:31:00,47.1,43.7,30.31,NW,315,1.3,1.3,88,0.00,,,0.00,VWS V14.00,2013-01-03 02:31:00,
2013-01-03 04:33:00,47.3,43.9,30.31,NNW,338,1.3,1.3,88,0.00,,,0.00,VWS V14.00,2013-01-03 02:33:00,
2013-01-03 04:35:00,47.1,43.7,30.32,NW,315,0.8,1.3,88,0.00,,,0.00,VWS V14.00,2013-01-03 02:35:00,
2013-01-03 04:36:00,47.1,43.7,30.32,NW,315,0.8,0.8,88,0.00,,,0.00,VWS V14.00,2013-01-03 02:36:00,
2013-01-03 04:38:00,47.1,43.7,30.31,NE,45,0.0,0.8,88,0.00,,,0.00,VWS V14.00,2013-01-03 02:38:00,
2013-01-03 04:40:00,47.1,43.7,30.31,North,0,0.0,0.8,88,0.00,,,0.00,VWS V14.00,2013-01-03 02:40:00,
2013-01-03 04:41:00,47.1,43.7,30.31,North,0,1.7,1.7,88,0.00,,,0.00,VWS V14.00,2013-01-03 02:41:00,
2013-01-03 04:43:00,47.1,43.7,30.32,North,0,0.8,1.7,88,0.00,,,0.00,VWS V14.00,2013-01-03 02:43:00,
2013-01-03 04:45:00,47.1,43.7,30.31,North,0,0.0,1.7,88,0.00,,,0.00,VWS V14.00,2013-01-03 02:45:00,
2013-01-03 04:46:00,47.1,43.7,30.31,North,0,0.0,0.0,88,0.00,,,0.00,VWS V14.00,2013-01-03 02:46:00,
2013-01-03 04:47:00,47.1,43.7,30.31,North,0,0.0,0.0,88,0.00,,,0.00,VWS V14.00,2013-01-03 02:47:00,
2013-01-03 04:48:00,47.1,43.7,30.31,NE,45,0.0,0.0,88,0.00,,,0.00,VWS V14.00,2013-01-03 02:48:00,
2013-01-03 04:50:00,47.1,43.7,30.31,ENE,68,0.0,0.0,88,0.00,,,0.00,VWS V14.00,2013-01-03 02:50:00,
2013-01-03 04:51:00,47.1,43.7,30.31,ENE,68,0.0,0.0,88,0.00,,,0.00,VWS V14.00,2013-01-03 02:51:00,
2013-01-03 04:52:00,47.1,43.7,30.31,NNE,22,2.2,2.2,88,0.00,,,0.00,VWS V14.00,2013-01-03 02:52:00,
2013-01-03 04:53:00,47.1,43.7,30.31,NNE,22,2.2,2.2,88,0.00,,,0.00,VWS V14.00,2013-01-03 02:53:00,
2013-01-03 04:55:00,47.1,43.7,30.31,North,0,0.0,2.2,88,0.00,,,0.00,VWS V14.00,2013-01-03 02:55:00,
2013-01-03 04:56:00,47.1,43.7,30.31,North,0,0.0,0.0,88,0.00,,,0.00,VWS V14.00,2013-01-03 02:56:00,
2013-01-03 04:57:00,47.1,43.7,30.31,North,0,0.0,0.0,88,0.00,,,0.00,VWS V14.00,2013-01-03 02:57:00,
2013-01-03 04:58:00,47.1,43.7,30.31,North,0,0.0,0.0,88,0.00,,,0.00,VWS V14.00,2013-01-03 02:58:00,
2013-01-03 05:00:00,47.1,43.7,30.32,North,0,0.0,0.0,88,0.00,,,0.00,VWS V14.00,2013-01-03 03:00:00,
2013-01-03 05:01:00,47.1,43.7,30.32,North,0,0.0,0.0,88,0.00,,,0.00,VWS V14.00,2013-01-03 03:01:00,
2013-01-03 05:02:00,47.1,43.7,30.32,North,0,0.0,0.0,88,0.00,,,0.00,VWS V14.00,2013-01-03 03:02:00,
2013-01-03 05:03:00,47.1,43.7,30.32,North,0,0.0,0.0,88,0.00,,,0.00,VWS V14.00,2013-01-03 03:03:00,
2013-01-03 05:05:00,47.1,43.7,30.31,North,0,0.0,0.0,88,0.00,,,0.00,VWS V14.00,2013-01-03 03:05:00,
2013-01-03 05:06:00,47.1,43.7,30.31,North,0,0.0,0.0,88,0.00,,,0.00,VWS V14.00,2013-01-03 03:06:00,
2013-01-03 05:07:00,47.1,43.7,30.31,North,0,0.0,0.0,88,0.00,,,0.00,VWS V14.00,2013-01-03 03:07:00,
2013-01-03 05:08:00,47.1,43.7,30.31,North,0,0.0,0.0,88,0.00,,,0.00,VWS V14.00,2013-01-03 03:08:00,
2013-01-03 05:10:00,47.1,43.7,30.31,North,0,0.0,0.0,88,0.00,,,0.00,VWS V14.00,2013-01-03 03:10:00,
2013-01-03 05:11:00,47.1,43.7,30.31,North,0,0.0,0.0,88,0.00,,,0.00,VWS V14.00,2013-01-03 03:11:00,
2013-01-03 05:12:00,47.1,43.7,30.31,North,0,0.0,0.0,88,0.00,,,0.00,VWS V14.00,2013-01-03 03:12:00,
2013-01-03 05:13:00,47.1,43.7,30.31,WNW,292,0.6,0.6,88,0.00,,,0.00,VWS V14.00,2013-01-03 03:13:00,
2013-01-03 05:15:00,47.1,43.7,30.31,WNW,292,0.6,0.6,88,0.00,,,0.00,VWS V14.00,2013-01-03 03:15:00,
2013-01-03 05:16:00,47.1,43.7,30.31,WNW,292,0.0,0.0,88,0.00,,,0.00,VWS V14.00,2013-01-03 03:16:00,
2013-01-03 05:17:00,47.1,43.7,30.31,WNW,292,0.0,0.0,88,0.00,,,0.00,VWS V14.00,2013-01-03 03:17:00,
2013-01-03 05:18:00,47.1,43.7,30.31,WNW,292,0.0,0.0,88,0.00,,,0.00,VWS V14.00,2013-01-03 03:18:00,
2013-01-03 05:20:00,46.9,43.5,30.31,WNW,292,1.3,1.3,88,0.00,,,0.00,VWS V14.00,2013-01-03 03:20:00,
2013-01-03 05:21:00,47.1,43.7,30.31,WNW,292,0.8,1.3,88,0.00,,,0.00,VWS V14.00,2013-01-03 03:21:00,
2013-01-03 05:22:00,47.1,43.7,30.31,WNW,292,0.8,1.3,88,0.00,,,0.00,VWS V14.00,2013-01-03 03:22:00,
2013-01-03 05:23:00,47.1,43.7,30.31,WNW,292,0.0,1.3,88,0.00,,,0.00,VWS V14.00,2013-01-03 03:23:00,
2013-01-03 05:25:00,46.9,43.5,30.32,NW,315,0.0,1.3,88,0.00,,,0.00,VWS V14.00,2013-01-03 03:25:00,
2013-01-03 05:26:00,46.9,43.5,30.31,NW,315,0.0,0.0,88,0.00,,,0.00,VWS V14.00,2013-01-03 03:26:00,
2013-01-03 05:27:00,46.9,43.5,30.31,NW,315,0.0,0.0,88,0.00,,,0.00,VWS V14.00,2013-01-03 03:27:00,
2013-01-03 05:29:00,46.9,43.5,30.31,WNW,292,0.0,0.0,88,0.00,,,0.00,VWS V14.00,2013-01-03 03:29:00,
2013-01-03 05:30:00,46.9,43.5,30.31,WNW,292,0.0,0.0,88,0.00,,,0.00,VWS V14.00,2013-01-03 03:30:00,
2013-01-03 05:31:00,46.9,43.5,30.31,NNW,338,0.0,0.0,88,0.00,,,0.00,VWS V14.00,2013-01-03 03:31:00,
2013-01-03 05:32:00,46.9,43.5,30.31,NNW,338,0.0,0.0,88,0.00,,,0.00,VWS V14.00,2013-01-03 03:32:00,
2013-01-03 05:35:00,46.9,43.5,30.31,North,0,0.0,0.0,88,0.00,,,0.00,VWS V14.00,2013-01-03 03:35:00,
2013-01-03 05:36:00,46.7,43.3,30.31,NE,45,0.8,0.8,88,0.00,,,0.00,VWS V14.00,2013-01-03 03:36:00,
2013-01-03 05:37:00,46.7,43.3,30.31,NE,45,0.8,0.8,88,0.00,,,0.00,VWS V14.00,2013-01-03 03:37:00,
2013-01-03 05:42:00,46.7,43.3,30.31,North,0,0.0,0.0,88,0.00,,,0.00,VWS V14.00,2013-01-03 03:42:00,
2013-01-03 05:43:00,46.5,43.1,30.32,North,0,0.0,0.0,88,0.00,,,0.00,VWS V14.00,2013-01-03 03:43:00,
2013-01-03 05:44:00,46.5,43.1,30.32,North,0,0.0,0.0,88,0.00,,,0.00,VWS V14.00,2013-01-03 03:44:00,
2013-01-03 05:47:00,46.7,43.3,30.31,North,0,0.0,0.0,88,0.00,,,0.00,VWS V14.00,2013-01-03 03:47:00,
2013-01-03 05:49:00,46.5,43.1,30.32,North,0,0.0,0.0,88,0.00,,,0.00,VWS V14.00,2013-01-03 03:49:00,
2013-01-03 05:52:00,46.5,43.1,30.31,NNE,22,0.0,0.0,88,0.00,,,0.00,VWS V14.00,2013-01-03 03:52:00,
2013-01-03 05:54:00,46.5,43.1,30.32,NNE,22,0.0,0.0,88,0.00,,,0.00,VWS V14.00,2013-01-03 03:54:00,
2013-01-03 05:57:00,46.5,43.1,30.32,NNE,22,0.0,0.0,88,0.00,,,0.00,VWS V14.00,2013-01-03 03:57:00,
2013-01-03 05:58:00,46.5,43.1,30.32,North,0,0.0,0.0,88,0.00,,,0.00,VWS V14.00,2013-01-03 03:58:00,
2013-01-03 05:59:00,46.5,43.1,30.32,North,0,0.0,0.0,88,0.00,,,0.00,VWS V14.00,2013-01-03 03:59:00,
2013-01-03 06:02:00,46.5,43.1,30.32,North,0,0.0,0.0,88,0.00,,,0.00,VWS V14.00,2013-01-03 04:02:00,
2013-01-03 06:03:00,46.5,43.1,30.31,North,0,0.0,0.0,88,0.00,,,0.00,VWS V14.00,2013-01-03 04:03:00,
2013-01-03 06:04:00,46.5,43.1,30.32,North,0,0.0,0.0,88,0.00,,,0.00,VWS V14.00,2013-01-03 04:04:00,
2013-01-03 06:07:00,46.5,43.1,30.32,North,0,0.0,0.0,88,0.00,,,0.00,VWS V14.00,2013-01-03 04:07:00,
2013-01-03 06:09:00,46.5,43.1,30.32,NNW,338,0.0,0.0,88,0.00,,,0.00,VWS V14.00,2013-01-03 04:09:00,
2013-01-03 06:12:00,46.5,43.1,30.32,WNW,292,1.1,1.1,88,0.00,,,0.00,VWS V14.00,2013-01-03 04:12:00,
2013-01-03 06:14:00,46.5,43.1,30.32,WNW,292,1.1,1.1,88,0.00,,,0.00,VWS V14.00,2013-01-03 04:14:00,
2013-01-03 06:17:00,46.5,43.1,30.32,NW,315,0.0,0.0,88,0.00,,,0.00,VWS V14.00,2013-01-03 04:17:00,
2013-01-03 06:18:00,46.5,43.1,30.32,NW,315,0.0,0.0,88,0.00,,,0.00,VWS V14.00,2013-01-03 04:18:00,
2013-01-03 06:19:00,46.4,43.0,30.32,NW,315,0.0,0.0,88,0.00,,,0.00,VWS V14.00,2013-01-03 04:19:00,
2013-01-03 06:22:00,46.2,42.8,30.32,NNE,22,0.0,0.0,88,0.00,,,0.00,VWS V14.00,2013-01-03 04:22:00,
2013-01-03 06:23:00,46.2,42.8,30.32,NNE,22,0.0,0.0,88,0.00,,,0.00,VWS V14.00,2013-01-03 04:23:00,
2013-01-03 06:24:00,46.2,42.8,30.32,NNE,22,0.0,0.0,88,0.00,,,0.00,VWS V14.00,2013-01-03 04:24:00,
2013-01-03 06:27:00,46.2,42.8,30.33,NNE,22,0.0,0.0,88,0.00,,,0.00,VWS V14.00,2013-01-03 04:27:00,
2013-01-03 06:29:00,46.2,42.8,30.33,NNE,22,0.0,0.0,88,0.00,,,0.00,VWS V14.00,2013-01-03 04:29:00,
2013-01-03 06:32:00,46.2,42.8,30.33,NNE,22,0.0,0.0,88,0.00,,,0.00,VWS V14.00,2013-01-03 04:32:00,
2013-01-03 06:33:00,46.2,42.8,30.33,NNE,22,0.0,0.0,88,0.00,,,0.00,VWS V14.00,2013-01-03 04:33:00,
2013-01-03 06:34:00,46.2,42.8,30.33,NNE,22,0.0,0.0,88,0.00,,,0.00,VWS V14.00,2013-01-03 04:34:00,
2013-01-03 06:37:00,46.2,42.8,30.33,NNE,22,0.0,0.0,88,0.00,,,0.00,VWS V14.00,2013-01-03 04:37:00,
2013-01-03 06:38:00,46.2,42.8,30.33,NNE,22,0.0,0.0,88,0.00,,,0.00,VWS V14.00,2013-01-03 04:38:00,
2013-01-03 06:39:00,46.2,42.8,30.33,NNE,22,0.0,0.0,88,0.00,,,0.00,VWS V14.00,2013-01-03 04:39:00,
2013-01-03 06:42:00,46.2,42.8,30.33,NNE,22,0.0,0.0,88,0.00,,,0.00,VWS V14.00,2013-01-03 04:42:00,
2013-01-03 06:43:00,46.2,42.8,30.33,NNE,22,0.0,0.0,88,0.00,,,0.00,VWS V14.00,2013-01-03 04:43:00,
2013-01-03 06:44:00,46.2,42.8,30.33,NNE,22,0.0,0.0,88,0.00,,,0.00,VWS V14.00,2013-01-03 04:44:00,
2013-01-03 06:47:00,46.2,42.8,30.33,North,0,0.0,0.0,88,0.00,,,0.00,VWS V14.00,2013-01-03 04:47:00,
2013-01-03 06:48:00,46.2,42.8,30.33,North,0,0.0,0.0,88,0.00,,,0.00,VWS V14.00,2013-01-03 04:48:00,
2013-01-03 06:49:00,46.2,42.8,30.33,North,0,0.0,0.0,88,0.00,,,0.00,VWS V14.00,2013-01-03 04:49:00,
2013-01-03 06:50:00,46.2,42.8,30.33,NNW,338,0.0,0.0,88,0.00,,,0.00,VWS V14.00,2013-01-03 04:50:00,
2013-01-03 06:52:00,46.2,42.8,30.33,NW,315,0.0,0.0,88,0.00,,,0.00,VWS V14.00,2013-01-03 04:52:00,
2013-01-03 06:53:00,46.2,42.8,30.33,NW,315,0.0,0.0,88,0.00,,,0.00,VWS V14.00,2013-01-03 04:53:00,
2013-01-03 06:54:00,46.2,42.8,30.33,NW,315,0.0,0.0,88,0.00,,,0.00,VWS V14.00,2013-01-03 04:54:00,
2013-01-03 06:55:00,46.2,42.8,30.33,NW,315,0.0,0.0,88,0.00,,,0.00,VWS V14.00,2013-01-03 04:55:00,
2013-01-03 06:58:00,46.0,42.7,30.33,NNE,22,0.8,0.8,88,0.00,,,0.00,VWS V14.00,2013-01-03 04:58:00,
2013-01-03 06:59:00,46.0,42.7,30.33,NNE,22,0.0,0.8,88,0.00,,,0.00,VWS V14.00,2013-01-03 04:59:00,
2013-01-03 07:00:00,46.0,42.7,30.33,NNE,22,0.0,0.8,88,0.00,,,0.00,VWS V14.00,2013-01-03 05:00:00,
2013-01-03 07:03:00,46.0,42.7,30.33,NNE,22,0.8,0.8,88,0.00,,,0.00,VWS V14.00,2013-01-03 05:03:00,
2013-01-03 07:05:00,46.0,42.7,30.33,NNE,22,0.0,0.8,88,0.00,,,0.00,VWS V14.00,2013-01-03 05:05:00,
2013-01-03 07:08:00,46.0,42.7,30.33,NNE,22,0.0,0.0,88,0.00,,,0.00,VWS V14.00,2013-01-03 05:08:00,
2013-01-03 07:10:00,46.0,42.7,30.33,NNE,22,0.0,0.0,88,0.00,,,0.00,VWS V14.00,2013-01-03 05:10:00,
2013-01-03 07:13:00,46.0,42.7,30.34,NNW,338,0.0,0.0,88,0.00,,,0.00,VWS V14.00,2013-01-03 05:13:00,
2013-01-03 07:15:00,46.0,42.7,30.34,North,0,0.0,0.0,88,0.00,,,0.00,VWS V14.00,2013-01-03 05:15:00,
2013-01-03 07:18:00,46.0,42.7,30.34,North,0,0.0,0.0,88,0.00,,,0.00,VWS V14.00,2013-01-03 05:18:00,
2013-01-03 07:20:00,46.0,42.7,30.34,NNW,338,0.0,0.0,88,0.00,,,0.00,VWS V14.00,2013-01-03 05:20:00,
2013-01-03 07:23:00,46.0,42.7,30.34,NE,45,0.0,0.0,88,0.00,,,0.00,VWS V14.00,2013-01-03 05:23:00,
2013-01-03 07:24:00,46.0,42.7,30.34,NE,45,0.0,0.0,88,0.00,,,0.00,VWS V14.00,2013-01-03 05:24:00,
2013-01-03 07:25:00,45.6,42.3,30.34,NNE,22,0.0,0.0,88,0.00,,,0.00,VWS V14.00,2013-01-03 05:25:00,
2013-01-03 07:28:00,45.6,42.3,30.35,NE,45,0.0,0.0,88,0.00,,,0.00,VWS V14.00,2013-01-03 05:28:00,
2013-01-03 07:29:00,45.6,42.3,30.35,NE,45,0.0,0.0,88,0.00,,,0.00,VWS V14.00,2013-01-03 05:29:00,
2013-01-03 07:30:00,45.6,42.3,30.34,NE,45,0.0,0.0,88,0.00,,,0.00,VWS V14.00,2013-01-03 05:30:00,
2013-01-03 07:33:00,45.6,42.3,30.34,NE,45,0.0,0.0,88,0.00,,,0.00,VWS V14.00,2013-01-03 05:33:00,
2013-01-03 07:34:00,45.6,42.3,30.34,NE,45,0.0,0.0,88,0.00,,,0.00,VWS V14.00,2013-01-03 05:34:00,
2013-01-03 07:35:00,45.6,42.3,30.34,NE,45,0.0,0.0,88,0.00,,,0.00,VWS V14.00,2013-01-03 05:35:00,
2013-01-03 07:38:00,45.6,42.3,30.35,NNE,22,0.0,0.0,88,0.00,,,0.00,VWS V14.00,2013-01-03 05:38:00,
2013-01-03 07:39:00,45.6,42.3,30.35,NNE,22,0.0,0.0,88,0.00,,,0.00,VWS V14.00,2013-01-03 05:39:00,
2013-01-03 07:40:00,45.6,42.3,30.34,NNE,22,0.0,0.0,88,0.00,,,0.00,VWS V14.00,2013-01-03 05:40:00,
2013-01-03 07:44:00,45.6,42.3,30.34,NNE,22,0.0,0.0,88,0.00,,,0.00,VWS V14.00,2013-01-03 05:44:00,
2013-01-03 07:45:00,45.6,42.3,30.34,NE,45,0.0,0.0,88,0.00,,,0.00,VWS V14.00,2013-01-03 05:45:00,
2013-01-03 07:49:00,46.0,43.0,30.34,NE,45,0.0,0.0,89,0.00,,,0.00,VWS V14.00,2013-01-03 05:49:00,
2013-01-03 07:50:00,46.0,43.0,30.34,NNE,22,0.8,0.8,89,0.00,,,0.00,VWS V14.00,2013-01-03 05:50:00,
2013-01-03 07:51:00,46.0,43.0,30.34,NNE,22,0.8,0.8,89,0.00,,,0.00,VWS V14.00,2013-01-03 05:51:00,
2013-01-03 07:54:00,46.2,43.1,30.34,North,0,0.0,1.3,89,0.00,,,0.00,VWS V14.00,2013-01-03 05:54:00,
2013-01-03 07:55:00,46.2,43.1,30.34,North,0,0.0,0.0,89,0.00,,,0.00,VWS V14.00,2013-01-03 05:55:00,
2013-01-03 07:56:00,46.2,43.1,30.34,North,0,0.0,0.0,89,0.00,,,0.00,VWS V14.00,2013-01-03 05:56:00,
2013-01-03 07:59:00,46.4,43.3,30.34,NNW,338,0.0,0.0,89,0.00,,,0.00,VWS V14.00,2013-01-03 05:59:00,
2013-01-03 08:00:00,46.5,43.4,30.34,NE,45,0.0,0.0,89,0.00,,,0.00,VWS V14.00,2013-01-03 06:00:00,
2013-01-03 08:01:00,46.5,43.4,30.34,NE,45,0.0,0.0,89,0.00,,,0.00,VWS V14.00,2013-01-03 06:01:00,
2013-01-03 08:04:00,46.5,43.4,30.35,East,90,0.0,0.0,89,0.00,,,0.00,VWS V14.00,2013-01-03 06:04:00,
2013-01-03 08:05:00,46.5,43.4,30.35,East,90,0.0,0.0,89,0.00,,,0.00,VWS V14.00,2013-01-03 06:05:00,
2013-01-03 08:06:00,46.5,43.4,30.35,East,90,0.0,0.0,89,0.00,,,0.00,VWS V14.00,2013-01-03 06:06:00,
2013-01-03 08:09:00,46.7,43.6,30.35,ENE,68,0.0,0.0,89,0.00,,,0.00,VWS V14.00,2013-01-03 06:09:00,
2013-01-03 08:10:00,46.9,43.8,30.35,North,0,0.0,0.0,89,0.00,,,0.00,VWS V14.00,2013-01-03 06:10:00,
2013-01-03 08:11:00,46.9,43.8,30.35,North,0,0.0,0.0,89,0.00,,,0.00,VWS V14.00,2013-01-03 06:11:00,
2013-01-03 08:14:00,46.9,43.8,30.35,NNW,338,0.0,0.0,89,0.00,,,0.00,VWS V14.00,2013-01-03 06:14:00,
2013-01-03 08:15:00,47.1,44.0,30.35,North,0,0.0,0.0,89,0.00,,,0.00,VWS V14.00,2013-01-03 06:15:00,
2013-01-03 08:16:00,47.1,44.0,30.35,North,0,0.0,0.0,89,0.00,,,0.00,VWS V14.00,2013-01-03 06:16:00,
2013-01-03 08:19:00,47.1,44.0,30.35,NNE,22,0.0,0.0,89,0.00,,,0.00,VWS V14.00,2013-01-03 06:19:00,
2013-01-03 08:20:00,47.3,44.2,30.35,NNE,22,0.0,0.0,89,0.00,,,0.00,VWS V14.00,2013-01-03 06:20:00,
2013-01-03 08:21:00,47.3,44.2,30.35,NNE,22,0.0,0.0,89,0.00,,,0.00,VWS V14.00,2013-01-03 06:21:00,
2013-01-03 08:24:00,47.3,44.2,30.35,NE,45,0.0,0.0,89,0.00,,,0.00,VWS V14.00,2013-01-03 06:24:00,
2013-01-03 08:25:00,47.4,44.3,30.35,NE,45,0.0,0.0,89,0.00,,,0.00,VWS V14.00,2013-01-03 06:25:00,
2013-01-03 08:26:00,47.4,44.3,30.35,NE,45,0.0,0.0,89,0.00,,,0.00,VWS V14.00,2013-01-03 06:26:00,
2013-01-03 08:29:00,47.8,44.7,30.35,NE,45,0.0,0.0,89,0.00,,,0.00,VWS V14.00,2013-01-03 06:29:00,
2013-01-03 08:30:00,47.8,44.7,30.35,NE,45,0.0,0.0,89,0.00,,,0.00,VWS V14.00,2013-01-03 06:30:00,
2013-01-03 08:31:00,47.8,44.7,30.35,NE,45,0.0,0.0,89,0.00,,,0.00,VWS V14.00,2013-01-03 06:31:00,
2013-01-03 08:34:00,47.8,44.4,30.35,NE,45,0.0,0.0,88,0.00,,,0.00,VWS V14.00,2013-01-03 06:34:00,
2013-01-03 08:35:00,47.8,44.4,30.35,NE,45,0.0,0.0,88,0.00,,,0.00,VWS V14.00,2013-01-03 06:35:00,
2013-01-03 08:36:00,48.0,44.9,30.35,NE,45,0.0,0.0,89,0.00,,,0.00,VWS V14.00,2013-01-03 06:36:00,
2013-01-03 08:39:00,48.0,44.9,30.35,NE,45,0.0,0.0,89,0.00,,,0.00,VWS V14.00,2013-01-03 06:39:00,
2013-01-03 08:40:00,48.0,44.6,30.35,NE,45,0.0,0.0,88,0.00,,,0.00,VWS V14.00,2013-01-03 06:40:00,
2013-01-03 08:41:00,48.0,44.6,30.35,NE,45,0.0,0.0,88,0.00,,,0.00,VWS V14.00,2013-01-03 06:41:00,
2013-01-03 08:44:00,48.2,44.8,30.35,North,0,0.8,0.8,88,0.00,,,0.00,VWS V14.00,2013-01-03 06:44:00,
2013-01-03 08:46:00,48.3,44.9,30.35,North,0,0.8,0.8,88,0.00,,,0.00,VWS V14.00,2013-01-03 06:46:00,
2013-01-03 08:49:00,48.7,45.3,30.35,NW,315,2.0,2.0,88,0.00,,,0.00,VWS V14.00,2013-01-03 06:49:00,
2013-01-03 08:51:00,48.7,45.3,30.35,NW,315,2.0,2.0,88,0.00,,,0.00,VWS V14.00,2013-01-03 06:51:00,
2013-01-03 08:55:00,49.1,45.4,30.35,North,0,2.4,3.1,87,0.00,,,0.00,VWS V14.00,2013-01-03 06:55:00,
2013-01-03 08:56:00,49.2,45.5,30.35,NNW,338,1.5,1.5,87,0.00,,,0.00,VWS V14.00,2013-01-03 06:56:00,
2013-01-03 09:00:00,49.6,45.6,30.35,North,0,2.4,2.4,86,0.00,,,0.00,VWS V14.00,2013-01-03 07:00:00,
2013-01-03 09:01:00,49.6,45.6,30.35,NNW,338,0.0,0.0,86,0.00,,,0.00,VWS V14.00,2013-01-03 07:01:00,
2013-01-03 09:05:00,50.0,45.7,30.35,North,0,0.0,4.9,85,0.00,,,0.00,VWS V14.00,2013-01-03 07:05:00,
2013-01-03 09:06:00,50.0,45.7,30.35,North,0,0.0,0.0,85,0.00,,,0.00,VWS V14.00,2013-01-03 07:06:00,
2013-01-03 09:10:00,50.5,45.8,30.35,North,0,0.0,1.5,84,0.00,,,0.00,VWS V14.00,2013-01-03 07:10:00,
2013-01-03 09:11:00,50.7,45.7,30.35,NE,45,0.0,0.0,83,0.00,,,0.00,VWS V14.00,2013-01-03 07:11:00,
2013-01-03 09:15:00,51.2,46.2,30.35,NE,45,1.1,2.2,83,0.00,,,0.00,VWS V14.00,2013-01-03 07:15:00,
2013-01-03 09:16:00,51.2,45.9,30.35,NE,45,1.1,1.1,82,0.00,,,0.00,VWS V14.00,2013-01-03 07:16:00,
2013-01-03 09:20:00,51.6,46.0,30.35,NNE,22,0.8,1.1,81,0.00,,,0.00,VWS V14.00,2013-01-03 07:20:00,
2013-01-03 09:21:00,51.6,46.0,30.35,ENE,68,0.6,0.8,81,0.00,,,0.00,VWS V14.00,2013-01-03 07:21:00,
2013-01-03 09:22:00,51.6,46.0,30.35,ENE,68,0.6,0.8,81,0.00,,,0.00,VWS V14.00,2013-01-03 07:22:00,
2013-01-03 09:25:00,51.6,46.0,30.36,NNE,22,0.0,0.8,81,0.00,,,0.00,VWS V14.00,2013-01-03 07:25:00,
2013-01-03 09:26:00,51.8,46.2,30.36,ENE,68,1.7,1.7,81,0.00,,,0.00,VWS V14.00,2013-01-03 07:26:00,
2013-01-03 09:27:00,51.8,46.2,30.36,ENE,68,1.7,1.7,81,0.00,,,0.00,VWS V14.00,2013-01-03 07:27:00,
2013-01-03 09:30:00,51.8,46.2,30.36,NNE,22,0.0,1.7,81,0.00,,,0.00,VWS V14.00,2013-01-03 07:30:00,
2013-01-03 09:31:00,51.9,45.9,30.36,NNE,22,0.0,0.0,80,0.00,,,0.00,VWS V14.00,2013-01-03 07:31:00,
2013-01-03 09:32:00,51.9,45.9,30.36,NNE,22,0.0,0.0,80,0.00,,,0.00,VWS V14.00,2013-01-03 07:32:00,
2013-01-03 09:35:00,52.1,46.5,30.36,East,90,0.0,0.0,81,0.00,,,0.00,VWS V14.00,2013-01-03 07:35:00,
2013-01-03 09:36:00,52.3,46.7,30.36,ENE,68,0.0,0.0,81,0.00,,,0.00,VWS V14.00,2013-01-03 07:36:00,
2013-01-03 09:37:00,52.3,46.7,30.36,ENE,68,0.0,0.0,81,0.00,,,0.00,VWS V14.00,2013-01-03 07:37:00,
2013-01-03 09:40:00,52.7,47.0,30.36,East,90,0.0,0.0,81,0.00,,,0.00,VWS V14.00,2013-01-03 07:40:00,
2013-01-03 09:41:00,52.7,47.0,30.36,East,90,0.0,0.0,81,0.00,,,0.00,VWS V14.00,2013-01-03 07:41:00,
2013-01-03 09:42:00,52.7,47.0,30.36,East,90,0.0,0.0,81,0.00,,,0.00,VWS V14.00,2013-01-03 07:42:00,
2013-01-03 09:45:00,53.2,47.5,30.37,East,90,0.0,0.0,81,0.00,,,0.00,VWS V14.00,2013-01-03 07:45:00,
2013-01-03 09:46:00,53.2,47.5,30.36,East,90,0.0,0.0,81,0.00,,,0.00,VWS V14.00,2013-01-03 07:46:00,
2013-01-03 09:47:00,53.2,47.5,30.36,East,90,0.0,0.0,81,0.00,,,0.00,VWS V14.00,2013-01-03 07:47:00,
2013-01-03 09:50:00,53.4,47.7,30.37,ENE,68,2.0,2.0,81,0.00,,,0.00,VWS V14.00,2013-01-03 07:50:00,
2013-01-03 09:51:00,53.4,47.7,30.37,ENE,68,2.0,2.0,81,0.00,,,0.00,VWS V14.00,2013-01-03 07:51:00,
2013-01-03 09:52:00,53.7,47.7,30.37,NNE,22,0.0,2.0,80,0.00,,,0.00,VWS V14.00,2013-01-03 07:52:00,
2013-01-03 09:55:00,53.7,47.7,30.37,NNE,22,2.0,2.0,80,0.00,,,0.00,VWS V14.00,2013-01-03 07:55:00,
2013-01-03 09:56:00,53.7,47.7,30.37,NNE,22,2.0,2.0,80,0.00,,,0.00,VWS V14.00,2013-01-03 07:56:00,
2013-01-03 09:57:00,53.9,47.9,30.37,East,90,0.0,2.0,80,0.00,,,0.00,VWS V14.00,2013-01-03 07:57:00,
2013-01-03 10:00:00,54.1,48.1,30.36,East,90,0.0,0.0,80,0.00,,,0.00,VWS V14.00,2013-01-03 08:00:00,
2013-01-03 10:01:00,54.1,48.1,30.36,East,90,0.0,0.0,80,0.00,,,0.00,VWS V14.00,2013-01-03 08:01:00,
2013-01-03 10:02:00,54.3,47.9,30.37,North,0,0.0,0.0,79,0.00,,,0.00,VWS V14.00,2013-01-03 08:02:00,
2013-01-03 10:05:00,54.3,47.9,30.37,North,0,0.0,0.0,79,0.00,,,0.00,VWS V14.00,2013-01-03 08:05:00,
2013-01-03 10:06:00,54.3,47.9,30.37,North,0,0.0,0.0,79,0.00,,,0.00,VWS V14.00,2013-01-03 08:06:00,
2013-01-03 10:07:00,54.3,47.9,30.37,NNE,22,1.1,1.1,79,0.00,,,0.00,VWS V14.00,2013-01-03 08:07:00,
2013-01-03 10:10:00,54.3,47.9,30.37,ENE,68,0.0,0.0,79,0.00,,,0.00,VWS V14.00,2013-01-03 08:10:00,
2013-01-03 10:11:00,54.3,47.9,30.37,ENE,68,0.0,0.0,79,0.00,,,0.00,VWS V14.00,2013-01-03 08:11:00,
2013-01-03 10:12:00,54.3,47.9,30.37,NE,45,0.8,0.8,79,0.00,,,0.00,VWS V14.00,2013-01-03 08:12:00,
2013-01-03 10:15:00,54.3,47.9,30.37,NE,45,0.0,0.0,79,0.00,,,0.00,VWS V14.00,2013-01-03 08:15:00,
2013-01-03 10:16:00,54.3,47.9,30.37,NE,45,0.0,0.0,79,0.00,,,0.00,VWS V14.00,2013-01-03 08:16:00,
2013-01-03 10:17:00,54.3,47.9,30.37,NE,45,0.0,0.0,79,0.00,,,0.00,VWS V14.00,2013-01-03 08:17:00,
2013-01-03 10:20:00,54.3,47.6,30.37,ENE,68,0.0,0.0,78,0.00,,,0.00,VWS V14.00,2013-01-03 08:20:00,
2013-01-03 10:21:00,54.3,47.6,30.37,ENE,68,0.0,0.0,78,0.00,,,0.00,VWS V14.00,2013-01-03 08:21:00,
2013-01-03 10:22:00,54.5,47.8,30.37,North,0,1.3,1.3,78,0.00,,,0.00,VWS V14.00,2013-01-03 08:22:00,
2013-01-03 10:26:00,54.3,47.9,30.37,NE,45,0.0,0.0,79,0.00,,,0.00,VWS V14.00,2013-01-03 08:26:00,
2013-01-03 10:27:00,54.3,47.9,30.37,NE,45,0.0,0.0,79,0.00,,,0.00,VWS V14.00,2013-01-03 08:27:00,
2013-01-03 10:31:00,54.5,47.8,30.37,ENE,68,0.8,0.8,78,0.00,,,0.00,VWS V14.00,2013-01-03 08:31:00,
2013-01-03 10:32:00,54.5,47.8,30.37,ENE,68,0.8,0.8,78,0.00,,,0.00,VWS V14.00,2013-01-03 08:32:00,
2013-01-03 10:36:00,54.3,47.6,30.38,NE,45,0.0,0.0,78,0.00,,,0.00,VWS V14.00,2013-01-03 08:36:00,
2013-01-03 10:37:00,54.3,47.6,30.37,North,0,1.3,1.3,78,0.00,,,0.00,VWS V14.00,2013-01-03 08:37:00,
2013-01-03 10:41:00,54.3,47.6,30.37,WNW,292,2.6,2.6,78,0.00,,,0.00,VWS V14.00,2013-01-03 08:41:00,
2013-01-03 10:42:00,54.5,47.5,30.37,NNW,338,3.3,3.3,77,0.00,,,0.00,VWS V14.00,2013-01-03 08:42:00,
2013-01-03 10:46:00,54.3,47.2,30.37,North,0,2.9,2.9,77,0.00,,,0.00,VWS V14.00,2013-01-03 08:46:00,
2013-01-03 10:47:00,54.3,47.2,30.37,North,0,3.8,3.8,77,0.00,,,0.00,VWS V14.00,2013-01-03 08:47:00,
2013-01-03 10:51:00,54.3,47.2,30.38,North,0,0.6,0.6,77,0.00,,,0.00,VWS V14.00,2013-01-03 08:51:00,
2013-01-03 10:52:00,54.3,47.2,30.37,NNW,338,3.5,3.5,77,0.00,,,0.06,VWS V14.00,2013-01-03 08:52:00,
2013-01-03 10:53:00,54.3,47.2,30.37,NNW,338,3.5,3.5,77,0.00,,,0.00,VWS V14.00,2013-01-03 08:53:00,
2013-01-03 10:56:00,54.1,47.1,30.37,NNE,22,4.2,4.2,77,0.00,,,0.00,VWS V14.00,2013-01-03 08:56:00,
2013-01-03 10:57:00,54.1,47.1,30.37,NNW,338,0.0,4.2,77,0.00,,,0.00,VWS V14.00,2013-01-03 08:57:00,
2013-01-03 10:58:00,54.1,47.1,30.37,NNW,338,0.0,4.2,77,0.00,,,0.00,VWS V14.00,2013-01-03 08:58:00,
2013-01-03 11:01:00,54.1,47.1,30.38,NNW,338,2.6,2.6,77,0.00,,,0.00,VWS V14.00,2013-01-03 09:01:00,
2013-01-03 11:02:00,54.1,47.1,30.37,NNE,22,2.4,2.6,77,0.00,,,0.00,VWS V14.00,2013-01-03 09:02:00,
2013-01-03 11:03:00,54.1,47.1,30.37,NNE,22,2.4,2.6,77,0.00,,,0.00,VWS V14.00,2013-01-03 09:03:00,
2013-01-03 11:06:00,54.3,47.2,30.37,NW,315,1.7,1.7,77,0.00,,,0.00,VWS V14.00,2013-01-03 09:06:00,
2013-01-03 11:08:00,54.3,47.2,30.37,NW,315,1.7,1.7,77,0.00,,,0.00,VWS V14.00,2013-01-03 09:08:00,
2013-01-03 11:11:00,54.8,47.4,30.37,NNW,338,4.2,4.2,76,0.00,,,0.00,VWS V14.00,2013-01-03 09:11:00,
2013-01-03 11:12:00,54.8,47.4,30.37,NNW,338,4.2,4.2,76,0.00,,,0.00,VWS V14.00,2013-01-03 09:12:00,
2013-01-03 11:13:00,54.8,47.4,30.37,ENE,68,1.1,4.2,76,0.00,,,0.00,VWS V14.00,2013-01-03 09:13:00,
2013-01-03 11:16:00,55.0,47.6,30.37,WNW,292,2.9,2.9,76,0.00,,,0.00,VWS V14.00,2013-01-03 09:16:00,
2013-01-03 11:17:00,55.0,47.6,30.37,WNW,292,2.9,2.9,76,0.00,,,0.00,VWS V14.00,2013-01-03 09:17:00,
2013-01-03 11:18:00,55.0,47.2,30.37,NE,45,0.8,2.9,75,0.00,,,0.00,VWS V14.00,2013-01-03 09:18:00,
2013-01-03 11:21:00,55.0,47.2,30.37,NE,45,0.0,3.8,75,0.00,,,0.06,VWS V14.00,2013-01-03 09:21:00,
2013-01-03 11:22:00,55.0,47.2,30.37,NE,45,0.0,3.8,75,0.00,,,0.00,VWS V14.00,2013-01-03 09:22:00,
2013-01-03 11:23:00,55.0,47.2,30.37,NE,45,0.0,3.8,75,0.00,,,0.00,VWS V14.00,2013-01-03 09:23:00,
2013-01-03 11:26:00,55.2,47.4,30.37,ENE,68,4.9,4.9,75,0.00,,,0.00,VWS V14.00,2013-01-03 09:26:00,
2013-01-03 11:27:00,55.2,47.4,30.37,ENE,68,4.9,4.9,75,0.00,,,0.00,VWS V14.00,2013-01-03 09:27:00,
2013-01-03 11:28:00,55.2,47.4,30.37,WNW,292,0.0,4.9,75,0.00,,,0.00,VWS V14.00,2013-01-03 09:28:00,
2013-01-03 11:31:00,55.5,47.7,30.37,NE,45,2.0,2.0,75,0.00,,,0.00,VWS V14.00,2013-01-03 09:31:00,
2013-01-03 11:32:00,55.5,47.7,30.37,NE,45,2.0,2.0,75,0.00,,,0.00,VWS V14.00,2013-01-03 09:32:00,
2013-01-03 11:33:00,55.7,47.5,30.37,WNW,292,0.0,2.0,74,0.00,,,0.00,VWS V14.00,2013-01-03 09:33:00,
2013-01-03 11:36:00,56.1,47.6,30.37,North,0,1.1,1.3,73,0.00,,,0.00,VWS V14.00,2013-01-03 09:36:00,
2013-01-03 11:37:00,56.1,47.6,30.37,North,0,1.1,1.3,73,0.00,,,0.00,VWS V14.00,2013-01-03 09:37:00,
2013-01-03 11:38:00,56.3,47.8,30.38,ESE,112,1.7,1.7,73,0.00,,,0.00,VWS V14.00,2013-01-03 09:38:00,
2013-01-03 11:41:00,56.4,47.9,30.37,NNE,22,0.0,0.0,73,0.00,,,0.00,VWS V14.00,2013-01-03 09:41:00,
2013-01-03 11:42:00,56.4,47.5,30.37,North,0,0.0,0.0,72,0.00,,,0.00,VWS V14.00,2013-01-03 09:42:00,
2013-01-03 11:43:00,56.4,47.5,30.37,North,0,0.0,0.0,72,0.00,,,0.00,VWS V14.00,2013-01-03 09:43:00,
2013-01-03 11:46:00,56.6,47.7,30.38,NW,315,5.1,5.1,72,0.00,,,0.00,VWS V14.00,2013-01-03 09:46:00,
2013-01-03 11:47:00,56.8,47.5,30.37,NE,45,2.2,5.1,71,0.00,,,0.00,VWS V14.00,2013-01-03 09:47:00,
2013-01-03 11:48:00,56.8,47.5,30.37,NE,45,2.2,5.1,71,0.00,,,0.00,VWS V14.00,2013-01-03 09:48:00,
2013-01-03 11:51:00,56.8,47.5,30.37,NNW,338,2.6,3.5,71,0.00,,,0.00,VWS V14.00,2013-01-03 09:51:00,
2013-01-03 11:52:00,56.8,47.5,30.36,NNW,338,2.6,3.5,71,0.00,,,0.00,VWS V14.00,2013-01-03 09:52:00,
2013-01-03 11:53:00,57.0,47.7,30.37,North,0,0.8,3.5,71,0.00,,,0.00,VWS V14.00,2013-01-03 09:53:00,
2013-01-03 11:56:00,57.0,47.7,30.36,NW,315,0.0,0.0,71,0.00,,,0.00,VWS V14.00,2013-01-03 09:56:00,
2013-01-03 11:57:00,57.0,47.3,30.36,East,90,0.0,0.0,70,0.00,,,0.00,VWS V14.00,2013-01-03 09:57:00,
2013-01-03 11:58:00,57.0,47.3,30.36,East,90,0.0,0.0,70,0.00,,,0.06,VWS V14.00,2013-01-03 09:58:00,
2013-01-03 12:01:00,57.0,47.3,30.36,NNW,338,1.1,1.1,70,0.00,,,0.00,VWS V14.00,2013-01-03 10:01:00,
2013-01-03 12:02:00,57.2,47.5,30.36,NW,315,4.4,4.4,70,0.00,,,0.00,VWS V14.00,2013-01-03 10:02:00,
2013-01-03 12:03:00,57.2,47.5,30.36,NW,315,4.4,4.4,70,0.00,,,0.00,VWS V14.00,2013-01-03 10:03:00,
2013-01-03 12:06:00,57.0,47.7,30.36,North,0,0.8,1.3,71,0.00,,,0.00,VWS V14.00,2013-01-03 10:06:00,
2013-01-03 12:08:00,57.0,47.7,30.36,North,0,0.8,1.3,71,0.00,,,0.00,VWS V14.00,2013-01-03 10:08:00,
2013-01-03 12:09:00,57.0,47.7,30.36,NNW,338,1.1,1.3,71,0.00,,,0.00,VWS V14.00,2013-01-03 10:09:00,
2013-01-03 12:11:00,57.2,47.5,30.36,NW,315,2.6,2.6,70,0.00,,,0.00,VWS V14.00,2013-01-03 10:11:00,
2013-01-03 12:13:00,57.3,47.6,30.36,North,0,3.1,3.1,70,0.00,,,0.00,VWS V14.00,2013-01-03 10:13:00,
2013-01-03 12:14:00,57.3,38.8,30.36,North,0,3.1,3.1,50,0.00,,,0.00,VWS V14.00,2013-01-03 10:14:00,
2013-01-03 12:16:00,57.3,47.6,30.35,NW,315,0.0,0.0,70,0.00,,,0.00,VWS V14.00,2013-01-03 10:16:00,
2013-01-03 12:18:00,57.5,47.4,30.36,NW,315,0.0,0.0,69,0.00,,,0.00,VWS V14.00,2013-01-03 10:18:00,
2013-01-03 12:19:00,57.5,47.4,30.36,NW,315,0.0,0.0,69,0.00,,,0.00,VWS V14.00,2013-01-03 10:19:00,
2013-01-03 12:21:00,57.7,47.6,30.36,North,0,1.1,5.8,69,0.00,,,0.00,VWS V14.00,2013-01-03 10:21:00,
2013-01-03 12:23:00,57.7,47.6,30.36,NNE,22,2.9,5.8,69,0.00,,,0.00,VWS V14.00,2013-01-03 10:23:00,
2013-01-03 12:24:00,57.7,47.6,30.35,NNE,22,2.9,5.8,69,0.00,,,0.00,VWS V14.00,2013-01-03 10:24:00,
2013-01-03 12:26:00,57.7,47.2,30.36,North,0,1.3,1.3,68,0.00,,,0.00,VWS V14.00,2013-01-03 10:26:00,
2013-01-03 12:28:00,57.7,47.2,30.36,North,0,9.1,9.1,68,0.00,,,0.00,VWS V14.00,2013-01-03 10:28:00,
2013-01-03 12:29:00,57.9,47.0,30.36,NNW,338,1.5,9.1,67,0.00,,,0.00,VWS V14.00,2013-01-03 10:29:00,
2013-01-03 12:31:00,57.7,46.8,30.35,NNW,338,1.1,1.5,67,0.00,,,0.00,VWS V14.00,2013-01-03 10:31:00,
2013-01-03 12:33:00,57.7,46.8,30.35,NNW,338,1.1,1.5,67,0.00,,,0.00,VWS V14.00,2013-01-03 10:33:00,
2013-01-03 12:34:00,57.7,46.8,30.35,North,0,8.0,8.0,67,0.00,,,0.00,VWS V14.00,2013-01-03 10:34:00,
2013-01-03 12:36:00,57.9,46.6,30.35,NNE,22,6.0,8.0,66,0.00,,,0.00,VWS V14.00,2013-01-03 10:36:00,
2013-01-03 12:38:00,57.9,46.6,30.35,NNW,338,0.0,8.0,66,0.00,,,0.00,VWS V14.00,2013-01-03 10:38:00,
2013-01-03 12:39:00,57.9,46.6,30.35,NNW,338,0.0,8.0,66,0.00,,,0.00,VWS V14.00,2013-01-03 10:39:00,
2013-01-03 12:41:00,57.9,46.6,30.35,North,0,7.6,7.6,66,0.00,,,0.00,VWS V14.00,2013-01-03 10:41:00,
2013-01-03 12:44:00,57.7,46.8,30.35,NNE,22,8.5,8.5,67,0.00,,,0.00,VWS V14.00,2013-01-03 10:44:00,
2013-01-03 12:47:00,57.7,46.8,30.35,NW,315,2.0,2.0,67,0.00,,,0.00,VWS V14.00,2013-01-03 10:47:00,
2013-01-03 12:49:00,57.7,46.8,30.35,NW,315,0.8,2.0,67,0.00,,,0.00,VWS V14.00,2013-01-03 10:49:00,
2013-01-03 12:52:00,57.7,47.2,30.35,North,0,3.1,4.6,68,0.00,,,0.00,VWS V14.00,2013-01-03 10:52:00,
2013-01-03 12:54:00,57.9,47.4,30.35,NNW,338,2.9,4.6,68,0.00,,,0.00,VWS V14.00,2013-01-03 10:54:00,
2013-01-03 12:55:00,57.9,47.4,30.35,NNW,338,2.9,4.6,68,0.00,,,0.00,VWS V14.00,2013-01-03 10:55:00,
2013-01-03 12:57:00,57.9,47.4,30.35,East,90,2.9,2.9,68,0.00,,,0.00,VWS V14.00,2013-01-03 10:57:00,
2013-01-03 12:59:00,57.9,47.4,30.35,ENE,68,3.5,3.5,68,0.00,,,0.00,VWS V14.00,2013-01-03 10:59:00,
2013-01-03 13:00:00,57.9,47.4,30.35,North,0,4.4,4.4,68,0.00,,,0.00,VWS V14.00,2013-01-03 11:00:00,
2013-01-03 13:02:00,57.9,47.0,30.35,North,0,4.4,4.4,67,0.00,,,0.00,VWS V14.00,2013-01-03 11:02:00,
2013-01-03 13:04:00,57.9,47.4,30.34,ENE,68,2.0,4.4,68,0.00,,,0.00,VWS V14.00,2013-01-03 11:04:00,
2013-01-03 13:05:00,57.9,47.4,30.34,ENE,68,2.0,4.4,68,0.00,,,0.00,VWS V14.00,2013-01-03 11:05:00,
2013-01-03 13:07:00,57.9,47.4,30.34,NE,45,5.8,5.8,68,0.00,,,0.00,VWS V14.00,2013-01-03 11:07:00,
2013-01-03 13:09:00,58.1,47.6,30.35,North,0,4.4,5.8,68,0.00,,,0.00,VWS V14.00,2013-01-03 11:09:00,
2013-01-03 13:10:00,58.1,47.6,30.34,North,0,4.6,5.8,68,0.00,,,0.00,VWS V14.00,2013-01-03 11:10:00,
2013-01-03 13:12:00,58.2,47.3,30.34,NE,45,4.4,4.6,67,0.00,,,0.00,VWS V14.00,2013-01-03 11:12:00,
2013-01-03 13:14:00,58.2,47.3,30.34,North,0,5.1,5.1,67,0.00,,,0.00,VWS V14.00,2013-01-03 11:14:00,
2013-01-03 13:15:00,58.2,47.3,30.34,North,0,5.1,5.1,67,0.00,,,0.00,VWS V14.00,2013-01-03 11:15:00,
2013-01-03 13:17:00,58.2,47.3,30.34,ENE,68,2.9,5.1,67,0.00,,,0.00,VWS V14.00,2013-01-03 11:17:00,
2013-01-03 13:19:00,58.2,47.7,30.33,ENE,68,2.9,5.1,68,0.00,,,0.00,VWS V14.00,2013-01-03 11:19:00,
2013-01-03 13:20:00,58.2,47.7,30.34,ENE,68,2.9,2.9,68,0.00,,,0.00,VWS V14.00,2013-01-03 11:20:00,
2013-01-03 13:22:00,58.1,47.6,30.34,NW,315,4.2,4.2,68,0.00,,,0.00,VWS V14.00,2013-01-03 11:22:00,
2013-01-03 13:24:00,58.1,47.6,30.34,North,0,8.2,8.2,68,0.00,,,0.00,VWS V14.00,2013-01-03 11:24:00,
2013-01-03 13:25:00,58.1,47.6,30.34,North,0,8.2,8.2,68,0.00,,,0.00,VWS V14.00,2013-01-03 11:25:00,
2013-01-03 13:27:00,58.1,47.6,30.34,NE,45,0.0,7.3,68,0.00,,,0.00,VWS V14.00,2013-01-03 11:27:00,
2013-01-03 13:29:00,57.9,47.4,30.34,North,0,3.3,7.3,68,0.00,,,0.00,VWS V14.00,2013-01-03 11:29:00,
2013-01-03 13:30:00,57.9,47.4,30.34,North,0,3.3,7.3,68,0.00,,,0.00,VWS V14.00,2013-01-03 11:30:00,
2013-01-03 13:33:00,57.9,47.4,30.34,NNW,338,0.0,3.3,68,0.00,,,0.00,VWS V14.00,2013-01-03 11:33:00,
2013-01-03 13:34:00,57.9,47.4,30.33,NNE,22,2.9,3.3,68,0.00,,,0.00,VWS V14.00,2013-01-03 11:34:00,
2013-01-03 13:35:00,57.9,47.4,30.33,NNE,22,2.9,3.3,68,0.00,,,0.00,VWS V14.00,2013-01-03 11:35:00,
2013-01-03 13:38:00,57.7,47.2,30.33,WNW,292,0.0,2.9,68,0.00,,,0.00,VWS V14.00,2013-01-03 11:38:00,
2013-01-03 13:39:00,57.7,47.2,30.33,NE,45,1.1,2.9,68,0.00,,,0.00,VWS V14.00,2013-01-03 11:39:00,
2013-01-03 13:40:00,57.5,47.4,30.34,NW,315,0.6,0.6,69,0.00,,,0.00,VWS V14.00,2013-01-03 11:40:00,
2013-01-03 13:43:00,57.3,46.8,30.33,WNW,292,0.8,0.8,68,0.00,,,0.00,VWS V14.00,2013-01-03 11:43:00,
2013-01-03 13:44:00,57.3,46.8,30.34,North,0,2.9,2.9,68,0.00,,,0.00,VWS V14.00,2013-01-03 11:44:00,
2013-01-03 13:45:00,57.3,46.8,30.34,North,0,2.9,2.9,68,0.00,,,0.00,VWS V14.00,2013-01-03 11:45:00,
2013-01-03 13:48:00,57.5,47.0,30.33,NNW,338,0.8,2.9,68,0.00,,,0.00,VWS V14.00,2013-01-03 11:48:00,
2013-01-03 13:49:00,57.3,46.8,30.33,NW,315,0.8,2.9,68,0.00,,,0.00,VWS V14.00,2013-01-03 11:49:00,
2013-01-03 13:50:00,57.3,46.8,30.33,NW,315,0.8,0.8,68,0.00,,,0.00,VWS V14.00,2013-01-03 11:50:00,
2013-01-03 13:53:00,57.3,46.8,30.33,NW,315,3.1,3.1,68,0.00,,,0.00,VWS V14.00,2013-01-03 11:53:00,
2013-01-03 13:54:00,57.3,46.8,30.33,ENE,68,0.8,3.1,68,0.00,,,0.00,VWS V14.00,2013-01-03 11:54:00,
2013-01-03 13:55:00,57.3,46.8,30.33,NNW,338,0.0,0.0,68,0.00,,,0.00,VWS V14.00,2013-01-03 11:55:00,
2013-01-03 13:58:00,57.3,46.8,30.33,North,0,2.4,2.4,68,0.00,,,0.00,VWS V14.00,2013-01-03 11:58:00,
2013-01-03 14:00:00,57.3,46.5,30.33,NNE,22,0.8,2.4,67,0.00,,,0.00,VWS V14.00,2013-01-03 12:00:00,
2013-01-03 14:03:00,57.3,46.5,30.33,ENE,68,1.3,1.3,67,0.00,,,0.00,VWS V14.00,2013-01-03 12:03:00,
2013-01-03 14:05:00,57.5,46.6,30.33,NNE,22,1.7,1.7,67,0.00,,,0.00,VWS V14.00,2013-01-03 12:05:00,
2013-01-03 14:06:00,57.5,46.6,30.33,NNE,22,1.7,1.7,67,0.00,,,0.00,VWS V14.00,2013-01-03 12:06:00,
2013-01-03 14:08:00,57.7,46.8,30.33,North,0,0.8,1.7,67,0.00,,,0.00,VWS V14.00,2013-01-03 12:08:00,
2013-01-03 14:10:00,57.7,46.8,30.33,NW,315,1.1,1.7,67,0.00,,,0.00,VWS V14.00,2013-01-03 12:10:00,
2013-01-03 14:11:00,57.7,46.8,30.33,NNE,22,2.2,2.2,67,0.00,,,0.00,VWS V14.00,2013-01-03 12:11:00,
2013-01-03 14:13:00,57.9,47.4,30.33,North,0,0.0,2.2,68,0.00,,,0.00,VWS V14.00,2013-01-03 12:13:00,
2013-01-03 14:15:00,57.9,47.4,30.33,NNE,22,1.5,2.2,68,0.00,,,0.00,VWS V14.00,2013-01-03 12:15:00,
2013-01-03 14:16:00,57.9,47.4,30.33,NE,45,1.3,1.5,68,0.00,,,0.00,VWS V14.00,2013-01-03 12:16:00,
2013-01-03 14:18:00,57.9,47.4,30.33,NE,45,1.3,1.5,68,0.00,,,0.00,VWS V14.00,2013-01-03 12:18:00,
2013-01-03 14:20:00,58.1,47.6,30.33,NE,45,0.0,1.5,68,0.00,,,0.00,VWS V14.00,2013-01-03 12:20:00,
2013-01-03 14:21:00,58.2,47.3,30.33,North,0,2.0,2.0,67,0.00,,,0.00,VWS V14.00,2013-01-03 12:21:00,
2013-01-03 14:23:00,58.2,47.7,30.33,NNE,22,7.1,7.1,68,0.00,,,0.00,VWS V14.00,2013-01-03 12:23:00,
2013-01-03 14:25:00,58.2,47.7,30.33,NNE,22,7.1,7.1,68,0.00,,,0.00,VWS V14.00,2013-01-03 12:25:00,
2013-01-03 14:26:00,58.2,47.7,30.33,North,0,8.2,8.2,68,0.00,,,0.00,VWS V14.00,2013-01-03 12:26:00,
2013-01-03 14:28:00,58.1,47.2,30.33,North,0,4.9,8.2,67,0.00,,,0.00,VWS V14.00,2013-01-03 12:28:00,
2013-01-03 14:30:00,58.1,47.2,30.33,NW,315,2.4,2.4,67,0.00,,,0.00,VWS V14.00,2013-01-03 12:30:00,
2013-01-03 14:31:00,58.1,47.2,30.33,NW,315,2.4,2.4,67,0.00,,,0.00,VWS V14.00,2013-01-03 12:31:00,
2013-01-03 14:33:00,57.9,47.4,30.33,NE,45,4.2,4.2,68,0.00,,,0.00,VWS V14.00,2013-01-03 12:33:00,
2013-01-03 14:35:00,57.9,47.4,30.33,NNE,22,3.5,3.5,68,0.00,,,0.00,VWS V14.00,2013-01-03 12:35:00,
2013-01-03 14:36:00,57.9,47.4,30.33,NNE,22,3.5,3.5,68,0.00,,,0.00,VWS V14.00,2013-01-03 12:36:00,
2013-01-03 14:38:00,57.7,47.2,30.33,NNW,338,6.0,6.0,68,0.00,,,0.00,VWS V14.00,2013-01-03 12:38:00,
2013-01-03 14:40:00,57.5,47.0,30.33,NNE,22,2.6,2.6,68,0.00,,,0.00,VWS V14.00,2013-01-03 12:40:00,
2013-01-03 14:41:00,57.5,47.0,30.33,NNE,22,2.6,2.6,68,0.00,,,0.00,VWS V14.00,2013-01-03 12:41:00,
2013-01-03 14:43:00,57.3,46.8,30.33,NNW,338,0.8,2.6,68,0.00,,,0.00,VWS V14.00,2013-01-03 12:43:00,
2013-01-03 14:45:00,57.3,47.2,30.33,NNW,338,0.8,0.8,69,0.00,,,0.00,VWS V14.00,2013-01-03 12:45:00,
2013-01-03 14:46:00,57.3,47.2,30.33,NNW,338,2.2,2.2,69,0.00,,,0.00,VWS V14.00,2013-01-03 12:46:00,
2013-01-03 14:48:00,57.2,47.1,30.33,NNW,338,2.2,2.2,69,0.00,,,0.00,VWS V14.00,2013-01-03 12:48:00,
2013-01-03 14:50:00,57.0,46.9,30.33,North,0,3.8,3.8,69,0.00,,,0.00,VWS V14.00,2013-01-03 12:50:00,
2013-01-03 14:51:00,57.0,46.9,30.33,North,0,5.1,5.1,69,0.00,,,0.00,VWS V14.00,2013-01-03 12:51:00,
2013-01-03 14:53:00,57.0,46.9,30.33,North,0,0.0,5.1,69,0.00,,,0.00,VWS V14.00,2013-01-03 12:53:00,
2013-01-03 14:55:00,57.0,47.3,30.33,North,0,3.5,3.5,70,0.00,,,0.00,VWS V14.00,2013-01-03 12:55:00,
2013-01-03 14:56:00,57.0,47.3,30.33,North,0,3.5,3.5,70,0.00,,,0.00,VWS V14.00,2013-01-03 12:56:00,
2013-01-03 14:57:00,57.0,47.3,30.33,North,0,3.5,3.5,70,0.00,,,0.00,VWS V14.00,2013-01-03 12:57:00,
2013-01-03 14:58:00,56.8,47.1,30.34,NNW,338,2.6,3.5,70,0.00,,,0.00,VWS V14.00,2013-01-03 12:58:00,
2013-01-03 15:00:00,56.8,47.1,30.34,NNE,22,4.6,4.6,70,0.00,,,0.00,VWS V14.00,2013-01-03 13:00:00,
2013-01-03 15:01:00,56.8,47.1,30.33,North,0,3.5,4.6,70,0.00,,,0.00,VWS V14.00,2013-01-03 13:01:00,
2013-01-03 15:02:00,56.8,47.1,30.33,North,0,3.5,4.6,70,0.00,,,0.00,VWS V14.00,2013-01-03 13:02:00,
2013-01-03 15:03:00,56.8,47.1,30.34,North,0,3.5,4.6,70,0.00,,,0.00,VWS V14.00,2013-01-03 13:03:00,
2013-01-03 15:05:00,56.4,46.8,30.33,NNW,338,0.8,0.8,70,0.00,,,0.00,VWS V14.00,2013-01-03 13:05:00,
2013-01-03 15:06:00,56.4,46.8,30.34,NNW,338,2.9,2.9,70,0.00,,,0.00,VWS V14.00,2013-01-03 13:06:00,
2013-01-03 15:07:00,56.4,46.8,30.34,NNW,338,2.9,2.9,70,0.00,,,0.00,VWS V14.00,2013-01-03 13:07:00,
2013-01-03 15:08:00,56.3,46.7,30.34,NE,45,2.0,2.9,70,0.00,,,0.00,VWS V14.00,2013-01-03 13:08:00,
2013-01-03 15:10:00,56.3,46.7,30.33,North,0,4.9,4.9,70,0.00,,,0.00,VWS V14.00,2013-01-03 13:10:00,
2013-01-03 15:12:00,56.3,46.7,30.34,North,0,4.9,4.9,70,0.00,,,0.00,VWS V14.00,2013-01-03 13:12:00,
2013-01-03 15:14:00,56.3,46.7,30.33,North,0,6.2,6.2,70,0.00,,,0.00,VWS V14.00,2013-01-03 13:14:00,
2013-01-03 15:16:00,56.1,46.5,30.33,NNE,22,4.6,4.6,70,0.00,,,0.00,VWS V14.00,2013-01-03 13:16:00,
2013-01-03 15:17:00,56.1,46.5,30.33,NNE,22,5.8,5.8,70,0.00,,,0.00,VWS V14.00,2013-01-03 13:17:00,
2013-01-03 15:19:00,56.1,46.5,30.33,NNE,22,5.8,5.8,70,0.00,,,0.00,VWS V14.00,2013-01-03 13:19:00,
2013-01-03 15:21:00,55.9,46.7,30.33,North,0,1.5,1.5,71,0.00,,,0.00,VWS V14.00,2013-01-03 13:21:00,
2013-01-03 15:22:00,55.9,46.7,30.33,NW,315,2.4,2.4,71,0.00,,,0.00,VWS V14.00,2013-01-03 13:22:00,
2013-01-03 15:24:00,55.9,46.7,30.33,North,0,7.8,7.8,71,0.00,,,0.00,VWS V14.00,2013-01-03 13:24:00,
2013-01-03 15:26:00,55.9,46.7,30.33,NW,315,2.0,2.0,71,0.00,,,0.00,VWS V14.00,2013-01-03 13:26:00,
2013-01-03 15:27:00,55.9,46.7,30.33,NW,315,2.0,2.0,71,0.00,,,0.00,VWS V14.00,2013-01-03 13:27:00,
2013-01-03 15:29:00,55.7,46.5,30.33,NNW,338,3.1,4.2,71,0.00,,,0.00,VWS V14.00,2013-01-03 13:29:00,
2013-01-03 15:31:00,55.7,46.5,30.33,NNW,338,3.1,3.1,71,0.00,,,0.00,VWS V14.00,2013-01-03 13:31:00,
2013-01-03 15:32:00,55.9,46.7,30.33,NNE,22,0.0,3.1,71,0.00,,,0.00,VWS V14.00,2013-01-03 13:32:00,
2013-01-03 15:34:00,55.7,46.5,30.33,NNE,22,1.3,3.1,71,0.00,,,0.00,VWS V14.00,2013-01-03 13:34:00,
2013-01-03 15:36:00,55.7,46.5,30.33,NNE,22,1.3,1.3,71,0.00,,,0.00,VWS V14.00,2013-01-03 13:36:00,
2013-01-03 15:37:00,55.5,46.3,30.33,North,0,4.0,4.0,71,0.00,,,0.00,VWS V14.00,2013-01-03 13:37:00,
2013-01-03 15:39:00,55.5,46.3,30.33,NNW,338,3.1,4.0,71,0.00,,,0.00,VWS V14.00,2013-01-03 13:39:00,
2013-01-03 15:41:00,55.5,45.9,30.33,NNE,22,5.1,5.1,70,0.00,,,0.00,VWS V14.00,2013-01-03 13:41:00,
2013-01-03 15:42:00,55.5,45.9,30.33,North,0,6.9,6.9,70,0.00,,,0.00,VWS V14.00,2013-01-03 13:42:00,
2013-01-03 15:44:00,55.5,45.5,30.33,NW,315,0.0,6.9,69,0.00,,,0.00,VWS V14.00,2013-01-03 13:44:00,
2013-01-03 15:46:00,55.5,45.5,30.33,NW,315,0.0,0.0,69,0.00,,,0.00,VWS V14.00,2013-01-03 13:46:00,
2013-01-03 15:47:00,55.5,45.5,30.33,NNW,338,1.5,1.5,69,0.00,,,0.00,VWS V14.00,2013-01-03 13:47:00,
2013-01-03 15:49:00,55.5,45.5,30.33,North,0,3.3,3.3,69,0.00,,,0.00,VWS V14.00,2013-01-03 13:49:00,
2013-01-03 15:51:00,55.5,45.5,30.33,North,0,3.3,3.3,69,0.00,,,0.00,VWS V14.00,2013-01-03 13:51:00,
2013-01-03 15:52:00,55.5,45.5,30.33,North,0,6.7,6.7,69,0.00,,,0.00,VWS V14.00,2013-01-03 13:52:00,
2013-01-03 15:54:00,55.5,45.5,30.33,NE,45,2.2,6.7,69,0.00,,,0.00,VWS V14.00,2013-01-03 13:54:00,
2013-01-03 15:56:00,55.5,45.5,30.33,North,0,1.3,1.3,69,0.00,,,0.00,VWS V14.00,2013-01-03 13:56:00,
2013-01-03 15:57:00,55.5,45.5,30.32,North,0,0.0,1.3,69,0.00,,,0.00,VWS V14.00,2013-01-03 13:57:00,
2013-01-03 15:59:00,55.5,45.5,30.33,NNE,22,0.0,1.3,69,0.00,,,0.00,VWS V14.00,2013-01-03 13:59:00,
2013-01-03 16:01:00,55.5,45.5,30.33,NNE,22,0.0,0.0,69,0.00,,,0.00,VWS V14.00,2013-01-03 14:01:00,
2013-01-03 16:02:00,55.5,45.5,30.33,WNW,292,3.8,3.8,69,0.00,,,0.00,VWS V14.00,2013-01-03 14:02:00,
2013-01-03 16:04:00,55.5,45.5,30.33,NNE,22,2.9,3.8,69,0.00,,,0.00,VWS V14.00,2013-01-03 14:04:00,
2013-01-03 16:06:00,55.5,45.5,30.33,North,0,3.3,3.3,69,0.00,,,0.00,VWS V14.00,2013-01-03 14:06:00,
2013-01-03 16:07:00,55.5,45.5,30.33,North,0,3.3,3.3,69,0.00,,,0.00,VWS V14.00,2013-01-03 14:07:00,
2013-01-03 16:09:00,55.4,45.4,30.33,NE,45,4.4,4.4,69,0.00,,,0.00,VWS V14.00,2013-01-03 14:09:00,
2013-01-03 16:11:00,55.5,45.5,30.33,ESE,112,2.4,2.4,69,0.00,,,0.00,VWS V14.00,2013-01-03 14:11:00,
2013-01-03 16:12:00,55.4,45.4,30.32,ENE,68,0.8,2.4,69,0.00,,,0.00,VWS V14.00,2013-01-03 14:12:00,
2013-01-03 16:14:00,55.4,45.4,30.32,ENE,68,0.0,2.4,69,0.00,,,0.00,VWS V14.00,2013-01-03 14:14:00,
2013-01-03 16:16:00,55.4,45.4,30.32,NE,45,2.2,2.2,69,0.00,,,0.00,VWS V14.00,2013-01-03 14:16:00,
2013-01-03 16:46:00,55.0,45.0,30.32,NNE,22,1.3,1.3,69,0.00,,,0.00,VWS V14.00,2013-01-03 14:46:00,
2013-01-03 16:51:00,54.6,44.7,30.32,NE,45,1.5,1.5,69,0.00,,,0.00,VWS V14.00,2013-01-03 14:51:00,
2013-01-03 16:52:00,54.6,44.7,30.32,NE,45,1.5,1.5,69,0.00,,,0.00,VWS V14.00,2013-01-03 14:52:00,
2013-01-03 16:56:00,54.6,45.0,30.32,ESE,112,3.5,3.5,70,0.00,,,0.00,VWS V14.00,2013-01-03 14:56:00,
2013-01-03 16:57:00,54.6,45.0,30.32,ESE,112,3.5,3.5,70,0.00,,,0.00,VWS V14.00,2013-01-03 14:57:00,
2013-01-03 17:01:00,54.3,44.7,30.32,North,0,4.2,4.2,70,0.00,,,0.00,VWS V14.00,2013-01-03 15:01:00,
2013-01-03 17:02:00,54.3,44.7,30.32,North,0,4.2,4.2,70,0.00,,,0.00,VWS V14.00,2013-01-03 15:02:00,
2013-01-03 17:06:00,54.3,45.1,30.32,NNW,338,0.0,0.0,71,0.00,,,0.00,VWS V14.00,2013-01-03 15:06:00,
2013-01-03 17:07:00,54.3,45.1,30.32,NNW,338,0.0,0.0,71,0.00,,,0.00,VWS V14.00,2013-01-03 15:07:00,
2013-01-03 17:12:00,54.3,45.1,30.32,WNW,292,2.0,2.0,71,0.00,,,0.00,VWS V14.00,2013-01-03 15:12:00,
2013-01-03 17:17:00,53.9,44.7,30.32,NNW,338,6.0,6.0,71,0.00,,,0.00,VWS V14.00,2013-01-03 15:17:00,
2013-01-03 17:22:00,53.9,44.7,30.32,NNW,338,2.0,2.0,71,0.00,,,0.00,VWS V14.00,2013-01-03 15:22:00,
2013-01-03 17:27:00,53.7,44.5,30.32,NW,315,2.2,2.2,71,0.00,,,0.00,VWS V14.00,2013-01-03 15:27:00,
2013-01-03 17:32:00,53.7,44.5,30.32,North,0,2.2,2.9,71,0.00,,,0.00,VWS V14.00,2013-01-03 15:32:00,
2013-01-03 17:37:00,53.4,44.2,30.32,North,0,2.9,2.9,71,0.00,,,0.00,VWS V14.00,2013-01-03 15:37:00,
2013-01-03 17:42:00,53.4,44.6,30.33,NNW,338,1.3,1.3,72,0.00,,,0.00,VWS V14.00,2013-01-03 15:42:00,
2013-01-03 17:47:00,53.2,44.4,30.33,North,0,2.6,2.6,72,0.00,,,0.00,VWS V14.00,2013-01-03 15:47:00,
2013-01-03 17:48:00,53.2,44.4,30.33,North,0,2.6,2.6,72,0.00,,,0.00,VWS V14.00,2013-01-03 15:48:00,
2013-01-03 17:52:00,53.2,44.4,30.33,NW,315,1.3,1.3,72,0.00,,,0.00,VWS V14.00,2013-01-03 15:52:00,
2013-01-03 17:53:00,53.2,44.4,30.33,NNW,338,0.0,1.3,72,0.00,,,0.00,VWS V14.00,2013-01-03 15:53:00,
2013-01-03 17:57:00,53.0,44.2,30.33,NW,315,1.7,1.7,72,0.00,,,0.00,VWS V14.00,2013-01-03 15:57:00,
2013-01-03 17:58:00,52.8,44.0,30.34,WNW,292,1.5,1.7,72,0.00,,,0.00,VWS V14.00,2013-01-03 15:58:00,
2013-01-03 18:02:00,52.8,44.0,30.33,WNW,292,0.0,0.0,72,0.00,,,0.00,VWS V14.00,2013-01-03 16:02:00,
2013-01-03 18:03:00,52.8,44.0,30.33,WNW,292,0.0,0.0,72,0.00,,,0.00,VWS V14.00,2013-01-03 16:03:00,
2013-01-03 18:07:00,52.8,44.4,30.33,West,270,0.0,0.0,73,0.00,,,0.00,VWS V14.00,2013-01-03 16:07:00,
2013-01-03 18:08:00,52.8,44.4,30.33,West,270,0.0,0.0,73,0.00,,,0.00,VWS V14.00,2013-01-03 16:08:00,
2013-01-03 18:12:00,52.7,44.3,30.33,NNW,338,0.0,0.0,73,0.00,,,0.00,VWS V14.00,2013-01-03 16:12:00,
2013-01-03 18:13:00,52.7,44.3,30.33,NNE,22,0.6,0.6,73,0.00,,,0.00,VWS V14.00,2013-01-03 16:13:00,
2013-01-03 18:17:00,52.7,44.3,30.33,WNW,292,0.0,1.5,73,0.00,,,0.00,VWS V14.00,2013-01-03 16:17:00,
2013-01-03 18:18:00,52.7,44.3,30.33,WNW,292,0.0,1.5,73,0.00,,,0.00,VWS V14.00,2013-01-03 16:18:00,
2013-01-03 18:22:00,52.5,44.1,30.33,NNE,22,2.2,2.2,73,0.00,,,0.00,VWS V14.00,2013-01-03 16:22:00,
2013-01-03 18:23:00,52.5,44.1,30.33,NNE,22,2.2,2.2,73,0.00,,,0.00,VWS V14.00,2013-01-03 16:23:00,
2013-01-03 18:27:00,52.5,44.1,30.33,NNW,338,1.1,1.1,73,0.00,,,0.00,VWS V14.00,2013-01-03 16:27:00,
2013-01-03 18:28:00,52.5,44.1,30.33,NNW,338,1.1,1.1,73,0.00,,,0.00,VWS V14.00,2013-01-03 16:28:00,
2013-01-03 18:33:00,52.5,44.1,30.34,North,0,0.8,1.7,73,0.00,,,0.00,VWS V14.00,2013-01-03 16:33:00,
2013-01-03 18:38:00,52.3,43.9,30.34,NNW,338,0.8,0.8,73,0.00,,,0.00,VWS V14.00,2013-01-03 16:38:00,
2013-01-03 18:43:00,52.3,43.9,30.34,NNW,338,0.0,1.5,73,0.00,,,0.00,VWS V14.00,2013-01-03 16:43:00,
2013-01-03 18:44:00,52.3,43.9,30.34,NNW,338,0.0,1.5,73,0.00,,,0.00,VWS V14.00,2013-01-03 16:44:00,
2013-01-03 18:48:00,52.3,43.9,30.34,North,0,0.6,0.6,73,0.00,,,0.00,VWS V14.00,2013-01-03 16:48:00,
2013-01-03 18:49:00,52.1,44.1,30.34,NE,45,1.1,1.1,74,0.00,,,0.00,VWS V14.00,2013-01-03 16:49:00,
2013-01-03 18:53:00,52.1,44.1,30.34,NNW,338,0.0,2.2,74,0.00,,,0.00,VWS V14.00,2013-01-03 16:53:00,
2013-01-03 18:54:00,52.1,44.1,30.34,NNW,338,0.0,2.2,74,0.00,,,0.00,VWS V14.00,2013-01-03 16:54:00,
2013-01-03 18:58:00,52.1,44.1,30.34,North,0,0.8,1.1,74,0.00,,,0.00,VWS V14.00,2013-01-03 16:58:00,
2013-01-03 18:59:00,52.1,44.1,30.34,North,0,0.8,1.1,74,0.00,,,0.00,VWS V14.00,2013-01-03 16:59:00,
2013-01-03 19:03:00,52.1,44.1,30.34,NNE,22,0.0,0.0,74,0.00,,,0.00,VWS V14.00,2013-01-03 17:03:00,
2013-01-03 19:04:00,51.9,43.9,30.34,NNE,22,0.0,0.0,74,0.00,,,0.00,VWS V14.00,2013-01-03 17:04:00,
2013-01-03 19:08:00,51.9,43.9,30.34,NNE,22,0.0,0.0,74,0.00,,,0.00,VWS V14.00,2013-01-03 17:08:00,
2013-01-03 19:09:00,51.9,43.9,30.34,NNE,22,0.0,0.0,74,0.00,,,0.00,VWS V14.00,2013-01-03 17:09:00,
2013-01-03 19:13:00,51.9,43.9,30.34,NE,45,0.0,0.0,74,0.00,,,0.00,VWS V14.00,2013-01-03 17:13:00,
2013-01-03 19:14:00,51.9,43.9,30.34,NE,45,0.0,0.0,74,0.00,,,0.00,VWS V14.00,2013-01-03 17:14:00,
2013-01-03 19:15:00,51.9,43.9,30.34,NE,45,0.0,0.0,74,0.00,,,0.00,VWS V14.00,2013-01-03 17:15:00,
2013-01-03 19:18:00,51.8,43.8,30.34,NE,45,0.0,0.0,74,0.00,,,0.00,VWS V14.00,2013-01-03 17:18:00,
2013-01-03 19:19:00,51.8,43.8,30.34,NE,45,0.0,0.0,74,0.00,,,0.00,VWS V14.00,2013-01-03 17:19:00,
2013-01-03 19:20:00,51.8,43.8,30.34,NE,45,0.0,0.0,74,0.00,,,0.00,VWS V14.00,2013-01-03 17:20:00,
2013-01-03 19:23:00,51.6,43.6,30.34,ESE,112,0.0,0.0,74,0.00,,,0.00,VWS V14.00,2013-01-03 17:23:00,
2013-01-03 19:24:00,51.6,43.6,30.34,ESE,112,0.0,0.0,74,0.00,,,0.00,VWS V14.00,2013-01-03 17:24:00,
2013-01-03 19:25:00,51.6,43.6,30.34,ESE,112,0.0,0.0,74,0.00,,,0.00,VWS V14.00,2013-01-03 17:25:00,
2013-01-03 19:28:00,51.6,43.6,30.34,South,180,1.1,1.1,74,0.00,,,0.00,VWS V14.00,2013-01-03 17:28:00,
2013-01-03 19:29:00,51.6,43.6,30.34,South,180,1.1,1.1,74,0.00,,,0.00,VWS V14.00,2013-01-03 17:29:00,
2013-01-03 19:30:00,51.6,44.0,30.34,SSW,202,0.0,1.1,75,0.00,,,0.00,VWS V14.00,2013-01-03 17:30:00,
2013-01-03 19:33:00,51.6,44.0,30.34,SW,225,0.8,0.8,75,0.00,,,0.00,VWS V14.00,2013-01-03 17:33:00,
2013-01-03 19:34:00,51.6,44.0,30.34,SW,225,0.8,0.8,75,0.00,,,0.00,VWS V14.00,2013-01-03 17:34:00,
2013-01-03 19:35:00,51.6,44.0,30.34,SW,225,0.8,0.8,75,0.00,,,0.00,VWS V14.00,2013-01-03 17:35:00,
2013-01-03 19:38:00,51.6,44.0,30.35,West,270,0.0,0.0,75,0.00,,,0.00,VWS V14.00,2013-01-03 17:38:00,
2013-01-03 19:39:00,51.6,44.0,30.35,West,270,0.0,0.0,75,0.00,,,0.00,VWS V14.00,2013-01-03 17:39:00,
2013-01-03 19:40:00,51.6,44.0,30.35,NW,315,0.0,0.0,75,0.00,,,0.00,VWS V14.00,2013-01-03 17:40:00,
2013-01-03 19:43:00,51.4,43.8,30.34,NW,315,0.0,0.0,75,0.00,,,0.00,VWS V14.00,2013-01-03 17:43:00,
2013-01-03 19:44:00,51.4,43.8,30.34,NW,315,0.0,0.0,75,0.00,,,0.00,VWS V14.00,2013-01-03 17:44:00,
2013-01-03 19:46:00,51.4,43.8,30.34,WNW,292,1.1,1.1,75,0.00,,,0.00,VWS V14.00,2013-01-03 17:46:00,
2013-01-03 19:48:00,51.4,43.8,30.34,WNW,292,0.0,1.1,75,0.00,,,0.00,VWS V14.00,2013-01-03 17:48:00,
2013-01-03 19:49:00,51.4,43.8,30.34,WNW,292,0.0,1.1,75,0.00,,,0.00,VWS V14.00,2013-01-03 17:49:00,
2013-01-03 19:51:00,51.4,43.8,30.34,NNW,338,0.0,0.0,75,0.00,,,0.00,VWS V14.00,2013-01-03 17:51:00,
2013-01-03 19:54:00,51.4,43.8,30.34,NNW,338,0.0,0.0,75,0.00,,,0.00,VWS V14.00,2013-01-03 17:54:00,
2013-01-03 19:56:00,51.4,43.8,30.34,North,0,0.0,0.0,75,0.00,,,0.00,VWS V14.00,2013-01-03 17:56:00,
2013-01-03 19:59:00,51.4,43.8,30.34,North,0,0.0,0.0,75,0.00,,,0.00,VWS V14.00,2013-01-03 17:59:00,
2013-01-03 20:01:00,51.2,43.6,30.34,North,0,0.0,0.0,75,0.00,,,0.00,VWS V14.00,2013-01-03 18:01:00,
2013-01-03 20:04:00,51.0,43.4,30.34,NE,45,0.0,1.3,75,0.00,,,0.00,VWS V14.00,2013-01-03 18:04:00,
2013-01-03 20:06:00,51.0,43.7,30.34,NE,45,0.0,0.0,76,0.00,,,0.00,VWS V14.00,2013-01-03 18:06:00,
2013-01-03 20:09:00,51.0,43.7,30.34,NE,45,0.0,0.0,76,0.00,,,0.00,VWS V14.00,2013-01-03 18:09:00,
2013-01-03 20:11:00,51.0,43.7,30.34,NE,45,0.0,0.0,76,0.00,,,0.00,VWS V14.00,2013-01-03 18:11:00,
2013-01-03 20:14:00,51.0,43.7,30.34,NE,45,0.0,0.0,76,0.00,,,0.00,VWS V14.00,2013-01-03 18:14:00,
2013-01-03 20:16:00,51.0,43.7,30.34,NE,45,0.0,0.0,76,0.00,,,0.00,VWS V14.00,2013-01-03 18:16:00,
2013-01-03 20:19:00,50.9,43.6,30.34,NNW,338,0.0,0.0,76,0.00,,,0.00,VWS V14.00,2013-01-03 18:19:00,
2013-01-03 20:21:00,50.9,43.6,30.34,NNW,338,0.0,0.0,76,0.00,,,0.00,VWS V14.00,2013-01-03 18:21:00,
2013-01-03 20:24:00,50.9,43.6,30.34,NNW,338,0.0,0.0,76,0.00,,,0.00,VWS V14.00,2013-01-03 18:24:00,
2013-01-03 20:25:00,50.9,43.6,30.34,NNW,338,0.0,0.0,76,0.00,,,0.00,VWS V14.00,2013-01-03 18:25:00,
2013-01-03 20:26:00,50.7,43.4,30.34,North,0,0.0,0.0,76,0.00,,,0.00,VWS V14.00,2013-01-03 18:26:00,
2013-01-03 20:29:00,50.7,43.4,30.34,NNW,338,0.0,0.0,76,0.00,,,0.00,VWS V14.00,2013-01-03 18:29:00,
2013-01-03 20:30:00,50.7,43.4,30.34,North,0,0.0,0.0,76,0.00,,,0.00,VWS V14.00,2013-01-03 18:30:00,
2013-01-03 20:32:00,50.7,43.4,30.34,NNE,22,0.0,0.0,76,0.00,,,0.00,VWS V14.00,2013-01-03 18:32:00,
2013-01-03 20:34:00,50.7,43.4,30.34,NNE,22,0.0,0.0,76,0.00,,,0.00,VWS V14.00,2013-01-03 18:34:00,
2013-01-03 20:35:00,50.7,43.4,30.34,NNE,22,0.0,0.0,76,0.00,,,0.00,VWS V14.00,2013-01-03 18:35:00,
2013-01-03 20:37:00,50.7,43.4,30.34,NNW,338,0.0,0.0,76,0.00,,,0.00,VWS V14.00,2013-01-03 18:37:00,
2013-01-03 20:39:00,50.7,43.4,30.34,NW,315,0.0,0.0,76,0.00,,,0.00,VWS V14.00,2013-01-03 18:39:00,
2013-01-03 20:40:00,50.7,43.4,30.34,NW,315,0.0,0.0,76,0.00,,,0.00,VWS V14.00,2013-01-03 18:40:00,
2013-01-03 20:42:00,50.7,43.4,30.34,WNW,292,0.0,0.0,76,0.00,,,0.00,VWS V14.00,2013-01-03 18:42:00,
2013-01-03 20:44:00,50.5,43.2,30.34,WNW,292,1.5,1.5,76,0.00,,,0.00,VWS V14.00,2013-01-03 18:44:00,
2013-01-03 20:45:00,50.5,43.2,30.34,WNW,292,1.7,1.7,76,0.00,,,0.00,VWS V14.00,2013-01-03 18:45:00,
2013-01-03 20:47:00,50.5,43.2,30.33,WNW,292,0.8,1.7,76,0.00,,,0.00,VWS V14.00,2013-01-03 18:47:00,
2013-01-03 20:49:00,50.5,43.2,30.34,NNE,22,0.0,1.7,76,0.00,,,0.00,VWS V14.00,2013-01-03 18:49:00,
2013-01-03 20:50:00,50.5,43.2,30.34,NNE,22,0.0,1.7,76,0.00,,,0.00,VWS V14.00,2013-01-03 18:50:00,
2013-01-03 20:52:00,50.5,43.2,30.34,North,0,0.0,0.0,76,0.00,,,0.00,VWS V14.00,2013-01-03 18:52:00,
2013-01-03 20:54:00,50.5,43.2,30.34,NW,315,0.0,0.0,76,0.00,,,0.00,VWS V14.00,2013-01-03 18:54:00,
2013-01-03 20:55:00,50.5,43.2,30.34,NNW,338,1.3,1.3,76,0.00,,,0.00,VWS V14.00,2013-01-03 18:55:00,
2013-01-03 20:57:00,50.5,43.2,30.33,NNW,338,1.3,1.3,76,0.00,,,0.00,VWS V14.00,2013-01-03 18:57:00,
2013-01-03 20:59:00,50.5,43.2,30.34,NNW,338,0.0,1.3,76,0.00,,,0.00,VWS V14.00,2013-01-03 18:59:00,
2013-01-03 21:00:00,50.5,43.2,30.34,NNW,338,0.0,0.0,76,0.00,,,0.00,VWS V14.00,2013-01-03 19:00:00,
2013-01-03 21:02:00,50.5,43.2,30.34,NNW,338,0.0,0.0,76,0.00,,,0.00,VWS V14.00,2013-01-03 19:02:00,
2013-01-03 21:04:00,50.5,43.2,30.34,North,0,0.0,0.0,76,0.00,,,0.00,VWS V14.00,2013-01-03 19:04:00,
2013-01-03 21:05:00,50.5,43.2,30.34,NW,315,0.0,0.0,76,0.00,,,0.00,VWS V14.00,2013-01-03 19:05:00,
2013-01-03 21:07:00,50.5,43.2,30.34,NW,315,0.0,0.0,76,0.00,,,0.00,VWS V14.00,2013-01-03 19:07:00,
2013-01-03 21:09:00,50.3,43.0,30.33,NW,315,0.8,0.8,76,0.00,,,0.00,VWS V14.00,2013-01-03 19:09:00,
2013-01-03 21:10:00,50.3,43.0,30.33,NW,315,1.3,1.3,76,0.00,,,0.00,VWS V14.00,2013-01-03 19:10:00,
2013-01-03 21:12:00,50.3,43.0,30.33,NW,315,1.3,1.3,76,0.00,,,0.00,VWS V14.00,2013-01-03 19:12:00,
2013-01-03 21:14:00,50.3,42.7,30.34,NNW,338,0.0,1.7,75,0.00,,,0.00,VWS V14.00,2013-01-03 19:14:00,
2013-01-03 21:16:00,50.3,42.7,30.33,NNW,338,0.0,0.0,75,0.00,,,0.00,VWS V14.00,2013-01-03 19:16:00,
2013-01-03 21:17:00,50.3,42.7,30.33,NNW,338,0.0,0.0,75,0.00,,,0.00,VWS V14.00,2013-01-03 19:17:00,
2013-01-03 21:54:00,49.8,42.2,30.33,WNW,292,0.0,0.0,75,0.00,,,0.00,VWS V14.00,2013-01-03 19:54:00,
2013-01-03 21:55:00,49.8,42.2,30.33,WNW,292,0.0,0.0,75,0.00,,,0.00,VWS V14.00,2013-01-03 19:55:00,
2013-01-03 21:56:00,49.8,42.2,30.33,WNW,292,0.0,0.0,75,0.00,,,0.00,VWS V14.00,2013-01-03 19:56:00,
2013-01-03 21:58:00,49.8,42.2,30.33,WNW,292,0.0,0.0,75,0.00,,,0.00,VWS V14.00,2013-01-03 19:58:00,
2013-01-03 21:59:00,49.8,42.2,30.33,WNW,292,0.0,0.0,75,0.00,,,0.00,VWS V14.00,2013-01-03 19:59:00,
2013-01-03 22:00:00,49.8,42.2,30.33,WNW,292,0.0,0.0,75,0.00,,,0.00,VWS V14.00,2013-01-03 20:00:00,
2013-01-03 22:01:00,49.8,42.2,30.33,WNW,292,0.0,0.0,75,0.00,,,0.00,VWS V14.00,2013-01-03 20:01:00,
2013-01-03 22:03:00,49.8,42.2,30.33,WNW,292,0.0,0.0,75,0.00,,,0.00,VWS V14.00,2013-01-03 20:03:00,
2013-01-03 22:04:00,49.8,41.9,30.33,WNW,292,0.0,0.0,74,0.00,,,0.00,VWS V14.00,2013-01-03 20:04:00,
2013-01-03 22:05:00,49.6,41.7,30.33,WNW,292,0.0,0.0,74,0.00,,,0.00,VWS V14.00,2013-01-03 20:05:00,
2013-01-03 22:06:00,49.6,41.7,30.33,WNW,292,0.0,0.0,74,0.00,,,0.00,VWS V14.00,2013-01-03 20:06:00,
2013-01-03 22:08:00,49.6,41.7,30.33,WNW,292,1.3,1.3,74,0.00,,,0.00,VWS V14.00,2013-01-03 20:08:00,
2013-01-03 22:09:00,49.6,41.7,30.33,WNW,292,1.1,1.3,74,0.00,,,0.00,VWS V14.00,2013-01-03 20:09:00,
2013-01-03 22:10:00,49.6,41.7,30.33,NW,315,0.0,0.0,74,0.00,,,0.00,VWS V14.00,2013-01-03 20:10:00,
2013-01-03 22:11:00,49.6,41.7,30.33,NW,315,0.0,0.0,74,0.00,,,0.00,VWS V14.00,2013-01-03 20:11:00,
2013-01-03 22:13:00,49.6,41.7,30.32,NW,315,0.0,0.0,74,0.00,,,0.00,VWS V14.00,2013-01-03 20:13:00,
2013-01-03 22:14:00,49.6,41.7,30.32,NW,315,0.0,0.0,74,0.00,,,0.00,VWS V14.00,2013-01-03 20:14:00,
2013-01-03 22:15:00,49.6,41.7,30.32,North,0,2.0,2.0,74,0.00,,,0.00,VWS V14.00,2013-01-03 20:15:00,
2013-01-03 22:16:00,49.6,41.7,30.32,North,0,2.0,2.0,74,0.00,,,0.00,VWS V14.00,2013-01-03 20:16:00,
2013-01-03 22:18:00,49.6,41.7,30.32,North,0,0.0,2.0,74,0.00,,,0.00,VWS V14.00,2013-01-03 20:18:00,
2013-01-03 22:19:00,49.6,41.7,30.32,WNW,292,1.3,2.0,74,0.00,,,0.00,VWS V14.00,2013-01-03 20:19:00,
2013-01-03 22:20:00,49.6,41.7,30.32,NNW,338,1.5,1.5,74,0.00,,,0.00,VWS V14.00,2013-01-03 20:20:00,
2013-01-03 22:21:00,49.6,41.7,30.32,NNW,338,1.5,1.5,74,0.00,,,0.00,VWS V14.00,2013-01-03 20:21:00,
2013-01-03 22:23:00,49.6,41.7,30.32,NNW,338,1.5,1.5,74,0.00,,,0.00,VWS V14.00,2013-01-03 20:23:00,
2013-01-03 22:24:00,49.6,41.7,30.32,WNW,292,0.0,1.5,74,0.00,,,0.00,VWS V14.00,2013-01-03 20:24:00,
2013-01-03 22:25:00,49.2,40.9,30.33,North,0,0.8,0.8,73,0.00,,,0.00,VWS V14.00,2013-01-03 20:25:00,
2013-01-03 22:26:00,49.2,40.9,30.33,North,0,0.8,0.8,73,0.00,,,0.00,VWS V14.00,2013-01-03 20:26:00,
2013-01-03 22:28:00,49.2,40.9,30.33,NW,315,0.0,0.8,73,0.00,,,0.00,VWS V14.00,2013-01-03 20:28:00,
2013-01-03 22:29:00,49.2,40.9,30.32,NW,315,0.0,0.8,73,0.00,,,0.00,VWS V14.00,2013-01-03 20:29:00,
2013-01-03 22:31:00,49.2,40.9,30.32,NNW,338,0.0,0.0,73,0.00,,,0.00,VWS V14.00,2013-01-03 20:31:00,
2013-01-03 22:33:00,49.2,40.9,30.33,NNW,338,1.5,1.5,73,0.00,,,0.00,VWS V14.00,2013-01-03 20:33:00,
2013-01-03 22:34:00,49.2,40.9,30.32,NNE,22,0.0,1.5,73,0.00,,,0.00,VWS V14.00,2013-01-03 20:34:00,
2013-01-03 22:36:00,49.2,40.9,30.33,NW,315,0.0,0.0,73,0.00,,,0.00,VWS V14.00,2013-01-03 20:36:00,
2013-01-03 22:38:00,49.2,40.9,30.32,NNW,338,0.0,0.0,73,0.00,,,0.00,VWS V14.00,2013-01-03 20:38:00,
2013-01-03 22:39:00,49.2,40.9,30.32,NNW,338,0.0,0.0,73,0.00,,,0.00,VWS V14.00,2013-01-03 20:39:00,
2013-01-03 22:41:00,49.1,40.8,30.32,NNW,338,0.0,0.0,73,0.00,,,0.00,VWS V14.00,2013-01-03 20:41:00,
2013-01-03 22:43:00,49.1,40.8,30.32,North,0,0.0,0.0,73,0.00,,,0.00,VWS V14.00,2013-01-03 20:43:00,
2013-01-03 22:44:00,49.1,40.8,30.32,NNW,338,0.0,0.0,73,0.00,,,0.00,VWS V14.00,2013-01-03 20:44:00,
2013-01-03 22:46:00,49.1,40.8,30.32,NNW,338,0.0,0.0,73,0.00,,,0.00,VWS V14.00,2013-01-03 20:46:00,
2013-01-03 22:48:00,49.1,40.8,30.32,NNE,22,0.0,0.0,73,0.00,,,0.00,VWS V14.00,2013-01-03 20:48:00,
2013-01-03 22:49:00,49.1,40.8,30.32,WNW,292,0.0,0.0,73,0.00,,,0.00,VWS V14.00,2013-01-03 20:49:00,
2013-01-03 22:51:00,49.1,40.8,30.32,WNW,292,0.0,0.0,73,0.00,,,0.00,VWS V14.00,2013-01-03 20:51:00,
2013-01-03 22:53:00,49.1,40.8,30.32,North,0,0.0,0.0,73,0.00,,,0.00,VWS V14.00,2013-01-03 20:53:00,
2013-01-03 22:54:00,48.9,40.6,30.32,North,0,0.0,0.0,73,0.00,,,0.00,VWS V14.00,2013-01-03 20:54:00,
2013-01-03 22:56:00,48.9,40.6,30.32,North,0,0.0,0.0,73,0.00,,,0.00,VWS V14.00,2013-01-03 20:56:00,
2013-01-03 22:57:00,48.9,40.6,30.32,North,0,0.0,0.0,73,0.00,,,0.00,VWS V14.00,2013-01-03 20:57:00,
2013-01-03 22:58:00,48.9,40.6,30.31,WSW,248,0.0,0.0,73,0.00,,,0.00,VWS V14.00,2013-01-03 20:58:00,
2013-01-03 23:00:00,48.9,40.6,30.31,West,270,0.0,0.0,73,0.00,,,0.00,VWS V14.00,2013-01-03 21:00:00,
2013-01-03 23:01:00,48.9,40.6,30.32,West,270,0.0,0.0,73,0.00,,,0.00,VWS V14.00,2013-01-03 21:01:00,
2013-01-03 23:02:00,48.9,40.6,30.32,West,270,0.0,0.0,73,0.00,,,0.00,VWS V14.00,2013-01-03 21:02:00,
2013-01-03 23:03:00,48.9,40.6,30.32,West,270,0.0,0.0,73,0.00,,,0.00,VWS V14.00,2013-01-03 21:03:00,
2013-01-03 23:05:00,48.9,40.6,30.32,West,270,0.0,0.0,73,0.00,,,0.00,VWS V14.00,2013-01-03 21:05:00,
2013-01-03 23:06:00,48.9,40.6,30.32,North,0,0.0,0.0,73,0.00,,,0.00,VWS V14.00,2013-01-03 21:06:00,
2013-01-03 23:07:00,48.9,40.6,30.32,North,0,0.0,0.0,73,0.00,,,0.00,VWS V14.00,2013-01-03 21:07:00,
2013-01-03 23:08:00,48.9,40.6,30.32,North,0,0.0,0.0,73,0.00,,,0.00,VWS V14.00,2013-01-03 21:08:00,
2013-01-03 23:10:00,48.9,40.6,30.32,North,0,0.0,0.0,73,0.00,,,0.00,VWS V14.00,2013-01-03 21:10:00,
2013-01-03 23:11:00,48.9,40.6,30.32,North,0,0.0,0.0,73,0.00,,,0.00,VWS V14.00,2013-01-03 21:11:00,
2013-01-03 23:12:00,48.9,40.6,30.32,North,0,0.0,0.0,73,0.00,,,0.00,VWS V14.00,2013-01-03 21:12:00,
2013-01-03 23:13:00,48.9,40.6,30.32,West,270,0.0,0.0,73,0.00,,,0.00,VWS V14.00,2013-01-03 21:13:00,
2013-01-03 23:15:00,48.9,40.6,30.32,WSW,248,0.0,0.0,73,0.00,,,0.00,VWS V14.00,2013-01-03 21:15:00,
2013-01-03 23:16:00,48.9,40.6,30.31,WSW,248,0.0,0.0,73,0.00,,,0.00,VWS V14.00,2013-01-03 21:16:00,
2013-01-03 23:17:00,48.9,40.6,30.32,WSW,248,0.0,0.0,73,0.00,,,0.00,VWS V14.00,2013-01-03 21:17:00,
2013-01-03 23:19:00,48.9,41.0,30.32,West,270,0.0,0.0,74,0.00,,,0.00,VWS V14.00,2013-01-03 21:19:00,
2013-01-03 23:20:00,48.9,41.0,30.32,West,270,0.0,0.0,74,0.00,,,0.00,VWS V14.00,2013-01-03 21:20:00,
2013-01-03 23:21:00,48.9,41.0,30.32,NW,315,0.0,0.0,74,0.00,,,0.00,VWS V14.00,2013-01-03 21:21:00,
2013-01-03 23:22:00,48.9,41.0,30.32,NW,315,0.0,0.0,74,0.00,,,0.00,VWS V14.00,2013-01-03 21:22:00,
2013-01-03 23:24:00,48.9,41.0,30.32,North,0,0.8,0.8,74,0.00,,,0.00,VWS V14.00,2013-01-03 21:24:00,
2013-01-03 23:25:00,48.9,41.0,30.31,North,0,0.8,0.8,74,0.00,,,0.00,VWS V14.00,2013-01-03 21:25:00,
2013-01-03 23:26:00,48.9,41.0,30.31,North,0,0.0,0.0,74,0.00,,,0.00,VWS V14.00,2013-01-03 21:26:00,
2013-01-03 23:27:00,48.9,41.0,30.31,North,0,0.0,0.0,74,0.00,,,0.00,VWS V14.00,2013-01-03 21:27:00,
2013-01-03 23:29:00,48.9,41.0,30.31,WSW,248,0.0,0.0,74,0.00,,,0.00,VWS V14.00,2013-01-03 21:29:00,
2013-01-03 23:30:00,48.9,41.0,30.31,WSW,248,0.0,0.0,74,0.00,,,0.00,VWS V14.00,2013-01-03 21:30:00,
2013-01-03 23:31:00,48.9,41.0,30.31,WSW,248,0.0,0.0,74,0.00,,,0.00,VWS V14.00,2013-01-03 21:31:00,
2013-01-03 23:32:00,48.9,41.0,30.31,WSW,248,0.0,0.0,74,0.00,,,0.00,VWS V14.00,2013-01-03 21:32:00,
2013-01-03 23:34:00,48.7,40.8,30.31,West,270,0.0,0.0,74,0.00,,,0.00,VWS V14.00,2013-01-03 21:34:00,
2013-01-03 23:35:00,48.7,40.8,30.31,West,270,0.0,0.0,74,0.00,,,0.00,VWS V14.00,2013-01-03 21:35:00,
2013-01-03 23:36:00,48.9,41.0,30.31,West,270,0.0,0.0,74,0.00,,,0.00,VWS V14.00,2013-01-03 21:36:00,
2013-01-03 23:37:00,48.9,41.0,30.30,West,270,0.0,0.0,74,0.00,,,0.00,VWS V14.00,2013-01-03 21:37:00,
2013-01-03 23:39:00,48.7,40.8,30.30,NNE,22,0.0,0.0,74,0.00,,,0.00,VWS V14.00,2013-01-03 21:39:00,
2013-01-03 23:40:00,48.7,40.8,30.31,NNE,22,0.0,0.0,74,0.00,,,0.00,VWS V14.00,2013-01-03 21:40:00,
2013-01-03 23:41:00,48.7,40.8,30.30,NNE,22,0.0,0.0,74,0.00,,,0.00,VWS V14.00,2013-01-03 21:41:00,
2013-01-03 23:42:00,48.7,40.8,30.30,NNE,22,0.0,0.0,74,0.00,,,0.00,VWS V14.00,2013-01-03 21:42:00,
2013-01-03 23:44:00,48.7,40.8,30.30,NNE,22,0.0,0.0,74,0.00,,,0.00,VWS V14.00,2013-01-03 21:44:00,
2013-01-03 23:46:00,48.7,41.1,30.30,NNW,338,0.0,0.0,75,0.00,,,0.00,VWS V14.00,2013-01-03 21:46:00,
2013-01-03 23:47:00,48.7,41.1,30.30,NW,315,0.0,0.0,75,0.00,,,0.00,VWS V14.00,2013-01-03 21:47:00,
2013-01-03 23:49:00,48.7,41.1,30.31,WNW,292,0.0,0.0,75,0.00,,,0.00,VWS V14.00,2013-01-03 21:49:00,
2013-01-03 23:51:00,48.7,41.1,30.31,WNW,292,0.0,0.0,75,0.00,,,0.00,VWS V14.00,2013-01-03 21:51:00,
2013-01-03 23:52:00,48.7,41.1,30.31,WNW,292,0.0,0.0,75,0.00,,,0.00,VWS V14.00,2013-01-03 21:52:00,
2013-01-03 23:54:00,48.7,41.1,30.31,NW,315,0.0,0.0,75,0.00,,,0.00,VWS V14.00,2013-01-03 21:54:00,
2013-01-03 23:56:00,48.7,41.1,30.31,NNW,338,0.0,0.0,75,0.00,,,0.00,VWS V14.00,2013-01-03 21:56:00,
2013-01-03 23:57:00,48.7,41.1,30.31,NNW,338,0.0,0.0,75,0.00,,,0.00,VWS V14.00,2013-01-03 21:57:00,
2013-01-03 23:59:00,48.7,41.1,30.31,NNW,338,0.0,0.0,75,0.00,,,0.00,VWS V14.00,2013-01-03 21:59:00,